GEFSSGP_con_cape1000_000.txt.gz
Probability
0 0 0 0 0 0 0 0 0 0 0 0 0 0 0 0 0 0 0 0 0 52 100 100 100 100 100 97 94 39 6 26 35 68 77 74 77 97 100 100 97 58 42 65 97 100 100 100 100
0 0 0 0 0 0 0 0 0 0 0 0 0 0 0 0 3 0 0 13 23 68 94 100 100 100 100 100 100 100 52 39 55 61 81 84 87 87 94 97 100 97 90 94 97 100 100 100 100
0 0 0 0 0 0 0 0 0 0 0 0 0 0 0 0 6 3 3 16 42 52 87 100 100 100 100 100 100 100 100 65 87 90 94 90 87 84 81 74 84 68 65 100 100 100 97 100 100
0 0 0 0 0 0 0 0 0 0 0 0 0 0 0 0 3 19 23 23 39 71 100 100 100 100 100 100 100 100 100 100 100 100 100 97 90 97 65 35 94 100 94 90 100 100 97 97 97
0 0 0 0 0 0 0 0 0 0 0 0 0 0 0 0 19 29 16 19 45 94 100 100 100 100 100 100 100 100 100 100 100 100 100 100 100 100 100 94 90 100 100 100 77 94 94 100 100
0 0 0 0 0 0 0 0 0 0 0 0 0 0 0 0 0 0 13 45 87 100 100 100 100 100 100 100 100 100 100 100 100 100 100 100 100 100 100 100 100 100 94 97 94 97 100 97 100
0 0 0 0 0 0 0 0 0 0 0 0 0 0 0 0 0 10 52 65 94 100 100 100 100 100 100 100 100 100 100 100 100 100 100 100 100 100 100 100 100 100 100 100 94 87 87 100 100
0 0 0 0 0 0 0 0 0 0 0 0 0 0 0 0 0 65 87 87 100 100 100 100 100 100 100 100 100 100 100 100 100 100 100 100 100 100 84 100 100 100 100 100 100 100 100 97 100
0 0 0 0 0 0 0 0 3 0 3 13 0 0 0 0 0 68 90 100 100 100 100 97 90 90 100 100 100 100 100 100 100 100 100 100 87 87 90 100 100 100 100 100 100 100 100 100 100
0 0 0 0 0 0 0 0 23 0 0 0 0 0 0 0 0 35 71 58 100 100 100 97 87 87 90 100 100 100 100 100 97 97 87 94 81 81 97 100 100 100 100 100 100 100 100 100 100
0 0 0 0 0 0 0 0 0 0 0 0 0 0 0 0 0 0 0 10 71 90 100 100 65 23 16 48 58 87 61 61 71 65 39 42 77 77 90 94 100 100 100 100 100 100 100 100 97
0 0 0 0 0 0 0 0 0 0 0 0 0 0 0 0 0 0 0 0 3 13 52 71 42 13 0 0 10 29 35 65 61 68 58 32 48 52 13 3 16 26 74 71 55 26 52 71 39
0 0 0 0 0 0 0 0 0 0 0 0 0 0 0 0 0 0 0 0 0 0 0 19 16 6 10 0 0 0 16 61 84 87 87 81 42 6 0 0 0 16 16 13 10 0 3 23 42
0 0 0 0 0 0 0 0 0 0 13 0 0 0 0 0 0 0 0 0 0 0 0 0 3 0 0 3 0 0 0 16 0 0 3 10 0 0 0 0 0 6 0 0 0 0 0 0 0
0 0 0 0 0 0 0 0 0 39 71 10 0 0 0 0 0 0 0 0 0 3 0 0 0 3 6 23 26 0 0 3 3 3 0 0 0 0 0 0 0 0 0 0 0 0 0 0 0
0 0 0 0 0 0 0 0 6 65 97 84 35 77 10 0 3 0 0 0 3 23 16 13 45 68 32 45 39 0 0 0 3 0 3 42 45 0 0 0 0 0 0 0 0 0 0 0 0
0 0 0 0 0 0 0 0 0 39 94 90 32 29 29 3 29 6 6 0 0 6 19 32 77 100 87 61 61 16 6 0 0 23 26 71 71 35 0 0 0 0 0 0 0 0 0 0 0
0 0 0 0 0 0 0 0 10 16 48 52 32 3 0 10 42 19 0 0 0 3 13 35 26 61 100 87 39 23 10 23 42 68 68 42 45 55 3 0 0 0 0 0 0 0 0 0 0
0 0 0 0 0 0 0 0 10 35 6 10 42 3 0 10 0 0 0 0 16 42 6 35 84 77 90 90 68 35 32 65 97 97 68 45 35 29 19 3 0 0 0 0 0 0 0 0 0
0 0 0 0 0 0 0 0 32 6 0 42 58 0 0 0 0 0 0 55 0 39 58 42 71 74 58 39 45 77 94 90 90 84 52 13 3 3 3 0 0 0 0 0 0 0 0 0 0
0 0 0 0 0 0 0 0 0 6 10 71 87 6 0 0 0 0 29 0 0 0 29 48 29 52 65 45 48 42 61 42 16 6 0 0 0 0 0 0 0 0 0 0 0 0 0 0 0
0 0 0 0 0 0 0 0 0 3 23 68 23 0 0 0 0 0 6 0 0 0 6 6 0 13 16 10 6 10 23 10 0 0 0 0 0 0 0 0 0 0 0 0 0 0 0 0 0
0 0 0 0 0 0 0 0 0 0 3 13 26 0 0 0 0 0 0 0 0 0 3 3 3 0 0 0 0 0 0 0 0 0 0 0 0 0 0 0 0 0 0 0 0 0 0 0 0
0 0 0 0 0 0 0 0 0 0 0 0 0 0 3 0 0 0 0 0 0 0 0 0 0 0 0 0 0 0 0 0 0 0 0 0 0 0 0 0 0 0 0 0 0 0 0 0 0
0 0 0 0 0 0 0 0 0 0 0 0 0 0 0 0 0 0 0 0 0 0 0 0 0 0 0 0 0 0 0 0 0 0 0 0 0 0 0 0 0 0 0 0 0 0 0 0 0
0 0 0 0 0 0 0 0 0 0 0 0 0 0 0 0 0 0 0 0 0 0 0 0 0 0 0 0 0 0 0 0 0 0 0 0 0 0 0 0 0 0 0 0 0 0 0 0 0
0 0 0 0 0 0 0 0 0 0 0 0 0 0 0 0 0 0 0 0 0 0 0 0 0 0 0 0 0 0 0 0 0 0 0 0 0 0 0 0 0 0 0 0 0 0 0 0 0
0 0 0 0 0 0 0 0 0 0 0 0 0 0 0 0 0 0 0 0 0 0 0 0 0 0 0 0 0 0 0 0 0 0 0 0 0 0 0 0 0 0 0 0 0 0 0 0 0
0 0 0 0 0 0 0 0 0 0 0 0 0 0 0 0 0 0 0 0 0 0 0 0 0 0 0 0 0 0 0 0 0 0 0 0 0 0 0 0 0 0 0 0 0 0 0 0 0
0 0 0 0 0 0 0 0 0 0 0 0 0 0 0 0 0 0 0 0 0 0 0 0 0 0 0 0 0 0 0 0 0 0 0 0 0 0 0 0 0 0 0 0 0 0 0 0 0

GEFSSGP_con_cape1000_006.txt.gz
Probability
0 0 0 0 0 0 0 0 0 0 0 0 0 0 0 0 0 0 0 0 0 0 19 84 68 61 26 26 52 94 97 100 100 100 100 100 100 100 100 100 100 81 45 35 52 74 100 100 100
0 0 0 0 0 0 0 0 0 0 0 0 0 0 0 0 0 0 0 0 0 0 29 55 55 68 45 26 42 84 94 100 100 100 100 100 100 100 97 61 61 39 13 13 19 65 97 100 100
0 0 0 0 0 0 0 0 0 0 0 0 0 0 0 0 0 0 0 0 0 3 35 55 58 65 71 35 39 65 90 100 100 100 100 100 100 94 87 77 71 45 13 13 39 81 77 100 100
0 0 0 0 0 0 0 0 0 0 0 0 0 0 0 0 0 0 0 0 3 29 61 81 84 77 87 71 45 61 87 90 100 100 100 90 68 58 35 35 39 16 3 68 100 97 81 55 94
0 0 0 0 0 0 0 0 0 0 0 0 0 0 0 10 10 0 0 0 13 39 74 94 100 81 84 84 77 77 84 94 100 100 100 97 81 42 16 10 65 97 65 42 84 97 84 90 61
0 0 0 0 0 0 0 0 0 0 0 0 0 0 0 26 3 0 0 3 19 61 97 100 100 94 87 94 90 97 94 97 100 100 100 100 100 100 100 45 45 97 100 97 71 81 87 97 100
0 0 0 0 0 0 0 0 0 0 0 0 0 0 6 26 6 0 0 3 35 94 100 100 100 97 94 90 94 97 100 97 100 100 100 100 100 100 100 100 100 100 100 100 97 81 81 100 100
0 0 0 0 0 0 0 0 0 0 0 0 0 0 0 23 10 0 3 10 71 100 100 97 100 97 97 97 97 97 100 100 100 100 100 100 100 100 100 100 100 100 100 100 100 100 100 100 100
0 0 0 0 0 0 0 0 0 0 0 0 0 0 0 13 13 13 16 45 87 100 100 97 94 87 97 97 100 100 100 100 97 100 100 100 100 100 100 100 100 100 100 100 100 100 100 100 100
0 0 0 0 0 0 0 0 0 0 0 0 0 0 0 19 35 35 19 19 55 90 100 94 87 87 90 100 100 100 100 100 94 100 100 100 90 48 87 74 100 100 100 100 100 100 100 100 100
0 0 0 0 0 0 0 0 0 0 0 0 0 0 23 52 61 52 29 13 10 52 94 94 81 81 94 87 84 87 81 87 84 87 87 65 61 45 87 68 65 42 52 84 100 100 94 87 94
0 0 0 0 0 0 0 0 0 0 0 0 0 0 45 77 77 74 61 45 32 58 90 94 81 77 81 71 71 84 77 55 55 39 32 29 29 32 35 23 10 6 6 23 42 13 6 16 32
0 0 0 0 0 0 0 0 0 0 0 0 0 10 35 77 77 77 81 90 90 90 90 90 84 65 61 10 13 61 74 65 48 55 52 32 26 6 3 6 0 0 0 0 6 3 0 0 0
0 0 0 0 0 0 0 0 0 0 0 0 0 3 19 61 87 81 97 90 94 97 97 90 77 45 23 6 0 6 35 35 26 45 55 35 19 16 10 3 0 0 0 0 0 0 0 0 0
0 0 0 0 0 0 0 0 0 0 0 0 0 0 0 10 16 35 61 65 77 90 90 90 81 23 0 0 0 0 0 6 13 19 19 26 23 13 0 3 0 0 0 0 0 0 0 0 0
0 0 0 0 0 0 0 0 0 0 0 0 0 0 0 0 3 3 13 16 35 61 58 55 94 52 3 0 0 0 0 0 0 0 0 3 6 3 0 0 0 0 0 0 0 0 0 0 0
0 0 0 0 0 0 0 0 0 0 0 0 0 0 0 0 0 0 0 3 13 32 32 29 52 58 16 0 0 0 0 0 0 0 0 0 0 0 0 0 0 0 0 0 0 0 0 0 0
0 0 0 0 0 0 0 0 0 6 3 0 0 0 0 0 0 0 0 0 0 10 13 10 3 16 10 0 0 0 0 0 0 0 0 0 3 32 3 0 0 0 0 0 0 0 0 0 0
0 0 0 0 0 0 0 3 10 23 39 19 6 0 0 0 0 0 0 0 0 0 0 0 0 0 3 0 10 0 0 0 0 0 0 3 6 23 3 0 0 0 0 0 0 0 0 0 0
0 0 0 0 0 0 0 6 23 6 26 26 23 3 0 0 0 0 0 0 0 0 0 3 6 6 13 19 16 0 0 0 10 10 3 3 0 0 0 0 0 0 0 0 0 0 0 0 0
0 0 0 0 0 0 0 0 0 0 3 6 0 0 0 0 0 0 0 0 0 3 3 3 3 3 0 3 0 0 0 0 0 0 0 0 0 0 0 0 0 0 0 0 0 0 0 0 0
0 0 0 0 0 0 0 0 0 0 0 0 0 0 0 0 0 0 0 0 0 0 0 0 0 0 0 0 3 6 0 0 0 0 0 0 0 0 0 0 0 0 0 0 0 0 0 0 0
0 0 0 0 0 0 0 0 0 0 0 0 0 0 0 0 0 0 0 0 0 0 0 0 0 0 0 0 0 3 0 0 0 0 0 0 0 0 0 0 0 0 0 0 0 0 0 0 0
0 0 0 0 0 0 0 0 0 0 0 0 0 0 0 0 0 0 0 0 0 0 0 0 0 0 0 0 0 0 0 0 0 0 0 0 0 0 0 0 0 0 0 0 0 0 0 0 0
0 0 0 0 0 0 0 0 0 0 0 0 0 0 0 0 0 0 0 0 0 0 0 0 0 0 0 0 0 0 0 0 0 0 0 0 0 0 0 0 0 0 0 0 0 0 0 0 0
0 0 0 0 0 0 0 0 0 0 0 0 0 0 0 0 0 0 0 0 0 0 0 0 0 0 0 0 0 0 0 0 0 0 0 0 0 0 0 0 0 0 0 0 0 0 0 0 0
0 0 0 0 0 0 0 0 0 0 0 0 0 0 0 0 0 0 0 0 0 0 0 0 0 0 0 0 0 0 0 0 0 0 0 0 0 0 0 0 0 0 0 0 0 0 0 0 0
0 0 0 0 0 0 0 0 0 0 0 0 0 0 0 0 0 0 0 0 0 0 0 0 0 0 0 0 0 0 0 0 0 0 0 0 0 0 0 0 0 0 0 0 0 0 0 0 0
0 0 0 0 0 0 0 0 0 0 0 0 0 0 0 0 0 0 0 0 0 0 0 0 0 0 0 0 0 0 0 0 0 0 0 0 0 0 0 0 0 0 0 0 0 0 0 0 0
0 0 0 0 0 0 0 0 0 0 0 0 0 0 0 0 0 0 0 0 0 0 0 0 0 0 0 0 0 0 0 0 0 0 0 0 0 0 0 0 0 0 0 0 0 0 0 0 0

GEFSSGP_con_cape1000_012.txt.gz
Probability
0 0 0 0 0 0 0 0 0 0 0 0 0 0 0 0 0 0 0 0 0 0 3 0 81 97 100 100 100 100 100 100 100 100 100 100 97 97 90 71 58 35 39 48 77 97 94 71 74
0 0 0 0 0 0 0 0 0 0 0 0 0 0 0 0 0 0 0 0 0 3 3 0 68 90 100 100 100 100 100 100 100 100 100 100 100 100 97 71 45 13 6 6 19 58 97 100 87
0 0 0 0 0 0 0 0 0 0 0 0 0 0 0 0 0 3 0 0 0 6 13 23 65 84 100 100 100 100 100 100 100 100 100 100 100 100 74 26 13 0 0 0 3 16 52 94 100
0 0 0 0 0 0 0 0 0 0 0 0 0 0 0 0 0 0 0 0 0 35 13 29 71 74 97 100 100 100 100 100 100 100 100 100 100 94 48 19 6 3 0 3 26 29 29 32 71
0 0 0 0 0 0 0 0 0 0 0 0 0 0 0 0 0 0 0 0 3 35 23 13 77 74 81 94 100 100 100 100 100 100 100 100 94 65 42 16 10 19 6 6 52 65 61 55 32
0 0 0 0 0 0 0 0 0 0 0 0 0 0 0 32 0 0 0 0 0 19 16 26 74 77 74 81 94 97 100 100 100 100 100 97 81 39 16 3 10 61 68 55 45 52 65 71 74
0 0 0 0 0 0 0 0 0 0 0 0 0 0 6 19 13 0 0 0 0 6 23 42 16 71 74 77 84 97 97 100 100 100 100 100 90 100 97 68 35 45 81 90 87 68 45 61 87
0 0 0 0 0 0 0 0 0 0 0 0 0 0 35 35 39 13 10 10 3 13 23 39 13 13 39 42 68 94 97 97 100 100 100 100 97 100 100 100 100 94 87 100 97 90 94 100 100
0 0 0 0 0 0 0 0 0 0 0 0 0 0 29 39 68 58 32 23 29 39 74 52 35 45 19 3 19 68 94 97 97 100 100 100 100 71 100 87 100 81 94 100 100 97 100 100 100
0 0 0 0 0 0 0 0 0 0 0 6 0 0 55 100 100 100 94 94 97 100 97 100 94 94 52 6 19 42 23 87 97 97 97 100 100 100 55 26 81 90 100 100 100 100 100 100 84
0 0 0 0 0 0 0 0 0 0 0 0 0 10 100 100 100 100 100 97 100 100 100 100 100 100 100 71 58 68 71 94 97 97 97 100 100 100 94 84 97 97 97 94 90 100 94 55 81
0 0 0 0 0 0 0 0 0 0 0 0 0 48 100 100 100 100 100 97 100 100 100 97 100 100 100 97 94 97 100 100 100 100 100 100 100 100 94 97 55 84 100 100 97 100 71 84 87
0 0 0 0 0 0 0 0 0 0 0 0 10 58 100 100 100 100 100 100 100 100 100 100 100 100 100 100 100 97 100 100 100 100 100 100 100 100 68 100 100 100 100 100 100 100 97 97 97
0 0 0 0 0 0 0 0 0 0 0 0 3 39 97 100 100 100 100 100 100 100 100 100 100 100 100 100 100 100 100 100 100 100 100 100 100 100 100 100 100 100 100 100 100 94 100 100 100
0 0 0 0 0 0 0 0 0 0 0 0 0 23 84 100 100 100 100 100 100 100 100 100 100 100 100 100 100 100 100 100 100 100 100 100 100 100 100 100 100 100 100 100 100 100 100 100 100
0 0 0 0 0 0 0 0 0 0 0 0 0 16 87 100 100 100 100 100 100 100 100 100 100 100 100 100 100 100 100 100 100 100 100 100 100 100 100 100 100 100 100 100 100 100 100 100 100
0 0 0 0 0 0 0 0 0 3 0 0 13 16 65 100 100 100 100 97 100 100 100 100 100 100 100 100 100 100 100 100 100 97 97 100 100 100 100 100 100 100 100 100 100 100 100 100 100
0 0 0 0 0 0 0 0 0 10 19 19 39 74 87 100 94 87 94 97 100 100 100 100 100 100 100 100 100 100 100 100 100 100 100 100 100 100 100 100 100 100 100 100 100 100 100 100 100
0 0 0 0 0 0 0 0 0 29 65 87 100 100 100 100 90 81 81 87 87 100 100 100 100 100 100 100 100 100 100 100 100 100 100 100 100 97 97 97 100 100 100 100 100 97 94 94 94
0 0 0 0 0 0 0 0 0 19 71 84 87 97 100 100 100 100 100 97 100 100 100 100 100 100 100 100 100 100 100 100 100 97 97 90 87 87 81 81 87 94 97 97 94 94 84 55 42
0 0 0 0 0 0 0 0 0 0 32 39 42 52 52 48 58 68 74 94 94 100 100 94 97 94 97 94 97 97 100 100 100 94 81 74 68 65 58 35 35 48 61 68 81 71 55 42 32
0 0 0 0 0 0 0 0 0 0 0 0 6 10 10 10 6 6 10 23 35 58 74 94 94 94 94 94 97 97 97 94 94 77 71 65 42 32 6 3 3 6 26 29 26 13 35 55 29
0 0 0 0 0 0 0 0 0 0 0 0 0 0 0 0 0 0 0 6 6 16 35 55 77 90 87 94 94 94 94 94 74 61 48 32 19 10 0 0 0 0 10 13 16 23 23 3 6
0 0 0 0 0 0 0 0 0 0 0 0 0 0 0 0 0 0 0 0 3 10 19 35 68 87 90 87 84 90 87 84 58 35 19 10 0 0 0 0 0 0 6 13 23 19 10 16 6
0 0 0 0 0 0 0 0 0 0 0 0 0 0 0 0 0 0 0 0 0 0 6 26 39 71 87 84 84 94 84 81 68 35 16 0 0 0 0 0 0 0 0 10 13 10 6 0 3
0 0 0 0 0 0 0 0 0 0 0 0 0 0 0 0 0 0 0 0 0 0 0 3 23 55 71 81 77 84 65 58 52 39 23 13 3 0 0 0 0 0 0 0 6 10 0 0 0
0 0 0 0 0 0 0 0 0 0 0 0 0 0 0 0 0 0 0 0 0 0 0 0 0 42 55 68 68 55 45 35 23 23 16 3 3 0 0 0 0 0 0 0 3 0 0 0 0
0 0 0 0 0 0 0 0 0 0 0 0 0 0 0 0 0 0 0 0 0 0 0 0 3 19 35 35 58 6 19 16 10 6 3 3 0 0 0 0 0 0 0 0 0 0 0 0 0
0 0 0 0 0 0 0 0 0 0 0 0 0 0 0 0 0 0 0 0 0 0 0 0 0 0 6 6 10 10 3 0 3 0 0 0 0 0 0 0 0 0 0 0 0 0 0 0 0
0 0 0 0 0 0 0 0 0 0 0 0 0 0 0 0 0 0 0 0 0 0 0 0 0 0 0 0 0 3 0 0 0 0 0 0 0 0 0 0 0 0 0 0 0 0 0 0 0

GEFSSGP_con_cape1000_018.txt.gz
Probability
0 0 0 0 10 29 0 0 0 0 0 0 0 0 0 0 26 65 0 0 6 0 6 100 100 100 100 100 100 100 100 100 90 90 97 94 77 55 35 32 35 48 52 81 74 74 68 52 23
0 0 0 0 3 0 0 0 0 0 0 0 0 0 0 0 0 0 0 0 6 0 0 55 100 100 100 100 100 100 100 100 100 100 100 100 77 55 16 10 10 3 13 16 35 48 29 26 26
0 0 0 0 0 0 0 0 0 0 0 0 0 0 0 0 0 0 0 0 6 0 0 100 100 100 100 100 100 100 100 100 100 100 100 100 90 81 35 16 6 0 0 0 10 19 45 52 45
0 0 0 0 0 0 0 0 0 0 0 0 0 0 3 0 0 0 0 3 6 0 13 94 100 100 100 100 100 100 100 100 100 100 100 100 100 87 55 29 10 6 0 0 3 10 13 45 81
0 0 0 0 0 0 0 0 0 0 0 0 0 6 29 0 0 0 0 10 13 6 26 68 100 100 100 100 100 100 100 100 100 100 100 100 90 90 77 42 26 10 6 3 10 35 42 23 32
0 0 0 0 0 0 0 0 0 0 0 0 0 26 45 6 0 0 0 13 10 13 23 32 100 100 100 100 100 100 100 100 100 100 100 100 94 90 84 77 58 39 23 13 23 65 65 68 68
0 0 0 0 0 0 0 0 0 0 0 0 0 13 65 0 0 0 0 16 16 19 32 13 71 100 100 100 100 100 100 100 100 100 100 97 97 94 87 84 74 71 94 94 87 81 90 100 100
0 0 0 0 0 0 0 0 0 0 0 0 0 13 71 6 0 0 0 23 16 32 45 10 6 55 97 100 100 100 100 100 100 100 100 100 97 97 97 100 97 97 100 100 100 100 100 100 100
0 0 0 0 0 0 0 0 0 0 0 0 0 0 65 13 0 0 0 10 39 58 65 19 0 32 39 23 77 97 97 97 97 100 100 100 100 94 97 100 100 100 100 100 100 100 100 100 100
0 0 0 0 0 0 0 0 0 0 0 0 0 16 39 39 13 13 3 13 68 90 65 42 16 55 42 3 13 39 58 94 97 97 100 100 100 100 97 100 100 100 100 100 100 100 100 100 97
0 0 0 0 0 0 0 0 0 0 0 0 0 26 45 74 68 52 55 81 100 100 81 58 52 84 65 71 74 35 23 55 81 87 97 100 100 97 97 100 100 100 100 100 100 100 100 97 97
0 0 0 0 0 0 0 0 0 0 0 0 0 32 65 81 94 71 74 97 100 100 100 87 87 90 94 87 84 87 74 81 84 94 97 97 100 100 100 100 100 100 100 100 100 100 97 97 100
0 0 0 0 0 0 0 0 0 0 0 0 0 16 32 42 77 100 100 100 100 100 100 100 100 100 97 100 100 87 90 87 90 100 100 100 100 100 100 100 100 100 100 100 100 100 100 100 100
0 0 0 0 0 0 0 0 0 0 0 0 0 0 19 29 45 97 100 100 100 100 100 100 100 100 100 100 100 100 100 100 100 100 100 100 100 100 100 100 100 100 100 100 100 100 100 100 100
0 0 0 0 0 0 0 0 0 0 0 0 0 0 0 26 42 90 100 100 100 100 100 100 100 100 100 100 100 100 100 100 100 100 100 100 100 100 100 100 100 100 100 100 100 100 100 100 100
0 0 0 0 0 0 0 0 0 0 0 0 0 0 6 61 58 84 100 100 100 100 100 100 100 100 100 100 100 100 100 100 100 100 100 100 100 100 100 100 100 100 100 100 100 100 100 100 100
0 0 0 0 0 0 0 0 0 0 0 0 0 3 16 81 90 100 100 100 100 100 100 100 100 100 100 100 100 100 100 100 100 100 100 100 100 100 100 100 100 100 100 100 97 97 100 94 87
0 0 0 0 0 0 0 0 0 0 0 0 3 13 23 52 90 100 100 100 100 100 100 100 100 100 100 100 100 100 100 100 100 100 100 100 100 100 100 100 100 100 100 100 94 94 90 94 87
0 0 0 0 0 0 0 0 0 0 0 0 3 42 55 77 94 100 100 100 100 100 100 100 100 100 100 100 100 100 100 100 100 100 100 100 100 100 100 100 100 100 97 97 97 97 90 90 84
0 0 0 0 0 0 0 0 0 0 0 0 13 45 68 84 87 81 87 90 97 100 100 100 100 100 100 100 100 100 100 100 100 100 100 100 100 97 97 97 97 97 90 90 90 94 74 68 61
0 0 0 0 0 0 0 0 0 0 0 0 3 13 23 39 42 39 45 48 55 71 84 87 100 100 100 100 100 100 100 100 100 100 100 100 100 97 97 97 94 97 94 87 84 77 68 55 35
0 0 0 0 0 0 0 0 0 0 0 3 3 3 6 6 6 10 16 16 13 19 26 48 84 100 100 100 100 100 100 100 100 100 100 100 100 97 94 90 87 87 87 81 74 58 52 32 6
0 0 0 0 0 0 0 0 0 0 3 0 0 0 0 0 0 0 0 0 0 0 3 26 45 84 100 100 100 100 100 100 100 100 100 100 100 100 87 87 71 68 55 48 52 42 26 10 0
0 0 0 0 0 0 0 0 0 0 3 6 3 0 0 0 0 0 0 0 0 0 6 13 45 87 100 100 100 100 100 100 100 100 100 100 100 100 71 58 52 48 45 32 26 13 0 0 0
0 0 0 0 0 0 0 0 0 0 0 6 3 3 0 0 0 0 0 0 0 0 3 26 58 84 90 94 94 100 100 100 100 100 97 100 97 90 77 42 45 42 19 13 10 0 0 0 0
0 0 0 0 0 0 0 0 0 0 0 0 0 0 0 0 0 0 0 0 0 0 3 16 61 84 87 81 87 90 90 84 87 87 87 94 90 90 81 58 45 39 16 3 10 3 0 0 0
0 0 0 0 0 0 0 0 0 0 0 0 0 0 0 0 0 0 0 0 0 0 6 29 58 81 74 61 81 84 74 74 65 65 65 74 77 65 48 35 32 23 26 16 13 6 0 0 0
0 0 0 0 0 0 0 0 0 0 0 0 0 0 0 0 0 0 0 0 0 0 13 32 55 68 65 52 48 23 32 35 48 45 42 45 45 35 23 23 19 16 19 13 6 6 3 3 6
0 0 0 0 0 0 0 0 0 16 6 0 0 0 0 0 0 0 0 0 0 3 0 19 39 52 58 29 23 23 6 3 3 10 10 13 16 10 10 10 6 10 3 6 6 3 0 3 3
0 0 0 0 0 0 0 0 0 0 0 0 0 0 0 0 0 0 0 0 0 3 3 10 26 29 26 19 6 3 0 0 3 0 0 3 3 6 6 3 3 0 0 0 0 0 0 0 0

GEFSSGP_con_cape1000_024.txt.gz
Probability
0 0 0 0 0 0 0 0 0 0 0 0 0 0 0 10 13 0 0 0 0 6 87 100 100 100 100 100 100 94 84 87 90 94 94 97 100 100 100 100 100 100 94 90 90 77 42 16 10
0 0 0 0 0 0 0 0 0 0 0 0 0 0 0 0 0 0 0 0 0 16 90 100 100 100 100 100 100 94 90 87 94 97 94 90 87 77 68 65 65 71 58 42 52 42 35 16 6
0 0 0 0 0 0 0 0 0 0 0 0 0 0 0 0 0 0 0 0 0 13 74 100 100 100 100 100 100 100 97 94 94 100 100 94 87 68 52 35 42 39 29 13 19 39 26 35 23
0 0 0 0 0 0 0 0 0 0 0 0 0 3 0 0 0 0 0 0 0 10 84 100 100 100 100 100 100 100 97 100 100 100 100 100 94 77 65 52 42 39 26 13 13 26 55 77 81
0 0 0 0 0 0 0 0 0 0 3 0 6 6 0 0 0 0 0 0 0 13 87 100 100 100 100 100 100 100 100 100 100 100 100 100 100 97 87 74 58 58 48 42 39 48 68 84 84
0 0 0 0 0 0 0 0 0 3 3 10 16 6 0 0 0 0 0 0 0 16 87 100 100 100 100 100 100 100 100 100 100 100 100 100 100 100 100 94 84 81 74 71 68 77 100 100 97
0 0 0 0 0 0 0 0 0 0 3 6 16 3 0 0 0 0 0 0 0 3 81 100 100 100 100 100 100 100 100 100 100 100 100 100 100 100 100 100 100 100 97 94 87 94 100 100 100
0 0 0 0 0 0 0 0 0 0 0 3 6 0 0 0 0 0 3 3 0 3 29 100 100 100 100 100 100 100 100 100 100 100 100 100 100 100 100 100 100 100 100 100 100 100 100 100 100
0 0 0 0 0 0 0 0 0 0 3 3 10 6 0 0 0 0 6 10 6 0 3 71 97 100 97 100 100 100 100 100 100 100 100 100 97 97 97 100 100 100 100 100 100 100 100 100 100
0 0 0 0 0 0 0 0 0 0 0 6 16 6 0 0 3 3 10 19 13 6 3 32 77 81 68 100 100 100 100 100 100 100 100 100 94 71 94 94 100 100 100 100 100 100 100 100 100
0 0 0 0 0 0 0 0 0 0 0 0 3 0 0 0 0 0 13 26 26 6 3 3 23 39 52 29 29 94 97 94 97 94 94 94 84 71 94 77 84 97 100 100 100 100 100 100 97
0 0 0 0 0 0 0 0 0 0 0 0 10 0 0 0 3 3 13 23 29 13 3 0 3 6 6 3 0 16 26 52 74 74 71 58 55 48 48 48 52 74 81 97 90 90 97 94 84
0 0 0 0 0 0 0 0 0 0 0 6 19 0 0 0 0 0 3 26 29 23 16 0 0 6 3 0 0 0 0 0 0 10 6 19 32 48 61 74 74 74 87 90 94 87 90 84 55
0 0 0 0 0 0 0 0 0 0 3 13 6 6 3 0 3 6 3 26 52 35 19 10 13 16 6 10 26 6 6 10 3 0 0 6 19 61 74 90 97 97 94 90 90 90 81 65 48
0 0 0 0 0 0 0 0 0 0 0 6 23 26 29 35 32 42 48 68 68 61 68 35 16 23 23 45 68 68 65 65 74 61 42 19 19 52 74 90 94 97 97 87 77 71 74 77 71
0 0 0 0 0 0 0 0 0 0 0 3 29 39 48 55 74 81 87 87 87 94 90 84 77 61 61 81 81 81 84 87 90 90 87 87 74 68 87 94 94 94 94 87 65 74 71 65 65
0 0 0 0 0 0 0 0 0 0 3 10 32 61 77 77 84 94 97 97 97 100 100 100 97 94 90 87 94 90 90 90 94 97 97 100 100 100 100 97 97 97 84 84 74 68 52 48 35
0 0 0 0 0 0 0 0 0 0 10 26 48 61 81 81 71 81 84 87 84 87 84 94 90 97 100 100 100 100 100 100 100 94 97 97 100 100 97 97 97 81 77 74 58 45 39 45 32
0 0 0 0 0 0 0 0 0 3 6 19 42 71 77 81 74 71 71 68 61 74 84 84 84 90 90 90 97 100 100 100 100 97 94 90 97 100 97 94 90 81 71 74 61 48 48 35 13
0 0 0 0 0 0 0 0 0 0 6 16 35 65 65 52 48 48 48 39 52 52 65 74 77 84 87 90 94 100 100 100 100 100 97 97 100 94 94 90 84 77 71 65 61 52 39 32 13
0 0 0 0 0 0 0 0 0 0 0 10 19 35 45 48 42 32 32 32 32 29 42 61 71 71 71 74 68 68 65 61 65 81 84 90 94 94 84 84 81 71 61 52 45 42 29 26 16
0 0 0 0 0 0 0 0 0 0 0 0 3 3 10 16 16 16 16 16 13 23 26 39 45 48 45 42 39 32 29 29 32 42 61 68 77 77 84 84 74 58 45 42 39 29 23 23 16
0 0 0 0 0 0 0 0 0 0 0 0 0 0 0 6 10 13 13 13 13 6 10 19 26 29 26 26 23 16 13 10 10 10 13 19 23 35 61 61 65 45 32 26 26 13 13 13 10
0 0 0 0 0 0 0 0 0 0 0 0 0 0 0 0 0 0 0 0 0 0 0 3 10 10 13 16 16 13 6 6 3 3 0 0 0 6 26 39 19 29 16 10 10 13 10 10 6
0 0 0 0 0 0 0 0 0 0 0 3 0 0 0 0 0 0 0 0 0 0 0 0 6 6 10 13 13 10 6 6 3 0 0 0 0 3 6 6 6 6 6 6 3 3 0 0 0
0 0 0 0 0 0 0 0 0 0 0 0 0 0 0 0 0 0 0 0 0 0 0 0 3 6 6 10 6 3 3 3 3 0 0 0 0 0 0 0 3 3 3 6 0 0 0 0 0
0 0 0 0 0 0 0 0 0 0 0 0 0 0 0 0 0 0 0 0 0 0 0 0 0 0 0 3 3 3 3 3 0 0 0 0 0 0 0 0 0 0 0 3 0 0 0 0 0
0 0 0 0 0 0 0 0 0 0 0 0 0 0 0 0 0 0 0 0 0 0 0 0 0 0 0 0 0 0 0 0 0 0 0 0 0 0 0 0 0 0 0 0 0 0 0 0 0
0 0 0 0 0 0 0 0 0 0 0 0 0 0 0 0 0 0 0 0 0 0 0 0 0 0 0 0 0 0 0 0 0 0 0 0 0 0 0 0 0 0 0 0 0 0 0 0 0
0 0 0 0 0 0 0 0 0 0 0 0 0 0 0 0 0 0 0 0 0 0 0 0 0 0 0 0 0 0 0 0 0 0 0 0 0 0 0 0 0 0 0 0 0 0 0 0 0

GEFSSGP_con_cape1000_030.txt.gz
Probability
0 0 0 0 0 0 0 0 0 0 0 0 0 0 0 0 0 0 0 0 0 6 94 100 97 94 90 84 87 94 97 97 100 100 100 100 100 100 100 100 100 90 77 39 26 16 13 26 42
0 0 0 0 0 0 0 0 0 0 0 0 0 0 0 0 0 0 0 0 0 26 87 65 97 90 84 84 87 90 97 97 100 100 100 100 100 100 100 100 94 97 87 77 61 23 13 13 13
0 0 0 0 0 0 0 0 0 0 0 0 0 0 0 0 0 0 0 0 0 35 65 55 97 94 87 84 90 87 100 100 97 100 100 100 100 100 97 87 87 81 65 68 68 42 32 23 19
0 0 0 0 0 0 0 0 0 0 0 0 0 0 0 0 0 0 0 0 6 48 55 61 100 100 97 90 90 94 97 97 100 100 100 100 100 97 81 74 77 71 65 58 71 71 71 61 48
0 0 0 0 0 0 0 0 0 0 0 0 0 0 0 0 0 0 0 0 6 55 52 68 100 100 100 97 94 94 97 97 100 100 100 100 100 94 84 84 90 90 90 87 87 87 90 94 97
0 0 0 0 0 0 0 0 0 0 0 6 0 0 0 0 0 0 0 0 10 55 61 87 100 100 100 100 100 100 100 100 100 100 100 100 100 100 100 94 94 94 94 94 94 94 97 97 97
0 0 0 0 0 0 0 0 0 0 0 6 0 0 0 0 0 0 0 0 6 55 84 100 100 100 100 100 100 100 100 100 100 100 100 100 100 100 100 100 97 97 97 97 97 97 100 100 100
0 0 0 0 0 0 0 0 0 0 0 16 0 0 0 0 0 0 0 0 19 68 90 100 100 100 100 100 100 100 100 100 100 100 100 100 100 100 100 100 100 100 100 100 100 100 100 100 100
0 0 0 0 0 0 0 0 0 0 0 16 3 0 0 0 0 0 0 0 26 71 90 100 100 100 100 100 100 100 100 100 100 100 100 100 100 100 100 100 100 100 100 100 100 100 100 100 100
0 0 0 0 0 0 0 0 0 0 3 0 3 0 0 0 0 0 0 0 0 23 84 100 97 100 100 100 100 100 100 100 100 100 100 100 100 97 100 100 100 100 100 100 100 100 100 100 100
0 0 0 0 0 0 0 0 0 0 0 0 0 0 0 0 0 0 0 0 0 0 19 87 94 97 100 100 97 100 100 100 100 100 97 97 97 94 97 97 97 97 100 100 100 100 100 100 100
0 0 0 0 0 0 0 0 0 0 0 0 0 0 0 0 3 6 0 0 0 0 0 26 87 90 90 90 74 81 97 97 97 100 97 90 90 84 87 90 74 55 55 68 84 94 94 100 100
0 0 0 0 0 0 0 0 0 0 0 0 0 6 10 3 10 10 10 3 3 0 0 3 55 81 87 81 52 58 74 90 90 94 94 94 94 81 65 52 48 45 42 52 68 71 87 90 87
0 0 0 0 0 0 0 0 0 0 0 0 0 3 10 13 6 6 10 23 26 16 6 3 16 29 48 71 48 32 16 29 26 32 45 61 90 77 26 10 13 23 39 45 74 74 84 87 87
0 0 0 0 0 0 0 0 0 0 3 6 3 6 16 10 10 13 19 26 35 35 19 6 6 19 19 32 23 6 3 3 6 13 6 6 23 32 23 10 13 23 35 55 71 71 68 68 61
0 0 0 0 0 0 0 0 0 3 10 19 29 39 35 32 42 42 39 42 48 48 26 26 32 13 10 13 6 10 6 0 0 3 6 10 13 6 10 10 13 26 42 55 58 61 61 61 61
0 0 0 0 0 0 0 0 0 6 23 45 61 65 61 65 81 81 68 65 77 74 68 58 55 39 29 19 16 19 42 58 65 68 68 71 74 68 39 39 48 55 55 71 58 52 45 39 39
0 0 0 0 0 0 0 0 3 19 52 61 74 77 81 84 84 84 90 84 81 77 74 71 68 68 55 52 55 68 65 65 71 74 77 81 84 90 84 81 87 84 81 81 68 55 48 35 32
0 0 0 0 0 0 0 0 0 6 45 55 58 65 77 68 68 71 77 81 77 74 65 58 61 65 58 55 55 71 55 52 45 45 65 65 58 68 68 74 84 84 81 84 71 61 52 48 39
0 0 0 0 0 0 0 0 0 6 26 32 48 58 61 58 58 61 58 61 61 55 52 58 61 61 65 58 45 45 45 29 29 29 23 23 26 39 45 45 45 52 68 65 71 55 52 42 39
0 0 0 0 0 0 0 0 0 3 6 23 26 45 52 55 55 42 48 45 52 52 52 52 48 52 45 32 23 29 10 3 3 3 3 3 6 6 13 10 13 23 35 45 52 52 42 42 39
0 0 0 0 0 0 0 0 0 0 6 19 29 32 45 45 35 32 35 39 32 23 29 32 26 26 26 23 19 13 3 0 0 0 0 0 0 0 0 6 6 10 23 29 35 42 42 42 39
0 0 0 0 0 0 0 0 0 0 6 13 23 32 35 32 19 19 19 16 16 10 13 6 13 19 16 19 16 3 0 0 0 0 0 0 0 0 0 0 0 6 10 13 19 23 23 32 39
0 0 0 0 0 0 0 0 0 0 0 3 13 19 19 19 19 16 13 10 6 0 0 3 10 10 6 10 10 6 0 0 0 0 0 0 0 0 0 0 0 0 6 6 13 10 10 10 10
0 0 0 0 0 0 0 0 0 0 0 0 6 10 13 3 0 3 0 0 0 0 0 0 6 6 6 3 3 3 0 0 0 0 0 0 0 0 0 0 0 0 3 3 3 0 0 0 0
0 0 0 0 0 0 0 0 0 0 0 0 0 0 0 0 0 0 0 0 0 0 0 0 0 3 0 0 0 0 0 0 0 0 0 0 0 0 0 0 0 0 0 0 0 0 3 6 6
0 0 0 0 0 0 0 0 0 0 0 0 0 0 0 0 0 0 0 0 0 0 0 0 0 0 0 0 0 0 0 0 0 0 0 0 0 0 0 0 0 0 0 0 0 0 0 3 3
0 0 0 0 0 0 0 0 0 0 0 0 0 0 0 0 0 0 0 0 0 0 0 0 0 0 0 0 0 0 0 0 0 0 0 0 0 0 0 0 0 0 0 0 0 0 0 0 0
0 0 0 0 0 0 0 0 0 0 0 0 0 0 0 0 0 0 0 0 0 0 0 0 0 0 0 0 0 0 0 0 0 0 0 0 0 0 0 0 0 0 0 0 0 0 0 0 0
0 0 0 0 0 0 0 0 0 0 0 0 0 0 0 0 0 0 0 0 0 0 0 0 0 0 0 0 0 0 0 0 0 0 0 0 0 0 0 0 0 0 0 0 0 0 0 0 0

GEFSSGP_con_cape1000_036.txt.gz
Probability
0 0 0 0 6 0 0 0 0 0 0 0 0 0 0 0 0 10 3 0 0 16 77 84 100 100 100 100 100 100 100 100 100 100 100 100 100 97 90 77 55 19 10 13 26 48 55 68 68
0 0 0 3 0 0 0 0 0 0 0 0 0 0 0 0 0 0 3 0 0 19 81 61 100 100 100 100 100 100 100 100 100 100 100 100 100 97 90 81 74 61 13 6 0 6 10 19 29
0 0 0 0 0 0 0 0 0 0 0 0 0 0 0 0 0 0 0 0 6 32 81 97 100 100 100 100 100 100 100 100 100 100 100 100 100 100 100 97 90 74 61 45 6 3 6 6 3
0 0 0 0 0 0 0 0 0 0 0 0 0 0 0 0 0 0 0 0 10 52 65 97 100 100 100 100 100 100 100 100 100 100 100 100 100 97 94 87 87 71 65 52 42 42 13 10 10
0 0 0 0 0 0 0 0 0 0 0 0 0 0 0 3 0 0 0 0 19 19 16 90 100 100 100 100 100 100 100 100 100 100 100 100 97 90 81 65 58 61 52 52 58 58 65 74 68
0 0 0 0 0 0 0 0 0 0 0 0 0 0 6 13 0 0 0 0 3 3 6 94 100 100 100 100 100 100 100 100 100 100 100 100 97 94 84 77 74 77 71 74 77 90 84 87 94
0 0 0 0 0 0 0 0 0 0 0 0 0 0 3 16 3 3 6 0 3 3 6 84 87 100 100 100 100 100 100 100 100 100 100 100 100 97 97 90 94 94 90 90 90 90 90 97 100
0 0 0 0 0 0 0 0 0 0 10 16 6 0 3 42 23 23 26 19 0 3 6 48 58 87 97 97 100 100 100 100 100 100 100 100 100 100 100 100 100 100 100 100 100 100 100 100 100
0 0 0 0 0 0 0 0 0 0 16 45 32 26 26 68 42 45 52 42 42 13 10 10 32 97 94 87 94 100 100 100 100 100 100 100 100 90 100 100 100 100 100 100 100 100 100 100 100
0 0 0 0 0 0 0 0 0 0 10 48 68 90 97 97 94 90 77 77 94 97 74 68 81 100 100 94 97 100 100 100 100 100 100 100 100 100 87 81 100 100 100 100 100 100 100 100 100
0 0 0 0 0 0 0 0 0 0 0 3 39 94 100 100 100 97 90 94 97 100 97 90 100 100 100 100 100 100 100 100 100 100 100 100 100 100 100 100 100 100 100 100 100 100 100 100 100
0 0 0 0 0 0 0 0 0 0 0 3 16 58 90 100 100 100 100 100 100 100 97 77 97 100 100 100 100 100 100 100 100 97 100 100 100 100 100 100 97 94 94 97 97 100 74 90 97
0 0 0 0 0 0 0 0 0 0 0 10 13 58 90 100 100 100 100 100 100 100 97 97 100 100 100 100 100 100 100 100 100 97 100 100 100 100 97 100 100 100 87 81 100 87 77 87 90
0 0 0 0 0 0 0 0 0 0 3 10 19 58 87 97 100 100 100 100 100 100 100 100 100 100 100 100 100 100 100 100 97 94 94 100 97 97 97 100 100 100 94 94 97 94 90 97 100
0 0 0 0 0 0 0 0 0 3 6 6 19 58 97 97 100 100 100 100 100 100 100 100 100 100 100 100 100 100 100 97 94 94 94 97 97 97 100 100 100 100 100 97 100 100 100 97 97
0 0 0 0 0 0 0 0 3 19 19 23 32 71 97 100 100 100 100 100 100 100 97 97 94 100 100 100 97 100 100 97 94 90 94 97 100 100 100 100 100 100 100 100 100 100 100 94 90
0 0 0 0 0 0 0 3 16 35 42 35 52 81 94 100 100 100 100 100 100 97 97 97 97 97 90 90 97 94 97 94 87 81 71 71 68 74 84 87 97 100 97 100 100 100 97 94 94
0 0 0 0 0 0 0 3 23 42 48 68 77 84 97 97 100 100 100 100 97 97 97 94 94 87 84 84 87 84 81 77 61 48 61 65 55 52 52 52 61 74 77 90 97 100 100 100 97
0 0 0 0 0 0 0 3 19 42 48 68 74 87 94 97 100 100 97 94 87 97 97 87 81 90 90 77 71 58 42 35 23 19 19 19 26 35 58 32 39 55 42 77 81 90 94 97 97
0 0 0 0 0 0 3 3 13 39 58 68 77 84 90 100 97 94 90 81 74 81 81 81 87 77 81 77 74 71 55 19 13 10 32 23 13 16 3 23 23 19 48 65 68 84 77 71 84
0 0 0 0 0 0 0 0 3 26 58 68 84 87 97 97 97 90 87 77 77 74 68 58 84 94 90 90 71 71 84 65 23 23 19 16 16 10 19 26 26 26 26 16 58 77 74 58 71
0 0 0 0 0 0 0 0 0 3 19 55 77 84 94 94 94 84 81 71 55 68 65 71 90 94 97 90 81 55 45 16 13 19 6 19 26 10 10 16 23 23 16 26 29 23 48 71 58
0 0 0 0 0 0 0 0 0 0 6 35 71 84 94 77 77 61 55 52 45 52 68 68 84 100 97 90 87 90 61 35 10 19 29 42 10 10 3 3 19 16 13 16 29 35 35 42 55
0 0 0 0 0 0 0 0 0 0 0 23 45 52 48 48 42 26 23 19 26 26 42 55 68 94 90 87 84 84 84 77 61 65 42 26 3 6 3 0 6 13 6 23 26 35 39 45 58
0 0 0 0 0 0 0 0 0 0 3 3 19 26 29 16 16 10 10 6 6 6 10 32 55 81 87 84 74 71 77 81 81 74 32 29 3 3 6 0 13 10 13 16 23 32 39 39 58
0 0 0 0 0 0 0 0 0 0 0 0 13 13 13 13 10 0 0 0 0 0 3 13 26 45 55 65 71 74 74 74 61 65 48 29 10 0 6 3 13 6 10 10 16 23 32 35 52
0 0 0 0 0 0 0 0 0 0 0 0 0 0 0 0 0 0 0 0 0 0 3 6 6 16 16 19 39 55 58 74 68 71 74 52 52 10 6 3 10 6 10 10 19 16 32 45 48
0 0 0 0 0 0 0 0 0 3 0 0 0 0 0 0 0 0 0 0 0 0 3 3 3 3 3 3 6 10 19 39 58 65 74 71 68 61 19 10 6 6 10 10 16 16 23 39 48
0 0 0 0 0 0 0 0 0 0 0 0 0 0 0 0 0 0 0 0 0 0 0 0 0 0 0 0 0 6 13 16 23 26 45 65 68 55 39 13 6 3 6 6 13 16 19 23 29
0 0 0 0 0 0 0 0 0 0 0 0 0 0 0 0 0 0 0 0 0 0 0 0 0 0 0 0 0 0 3 6 13 19 16 35 48 45 42 16 6 0 0 3 3 13 10 13 16

GEFSSGP_con_cape1000_042.txt.gz
Probability
0 0 0 0 61 68 3 0 0 0 0 0 0 0 0 16 58 16 0 16 77 26 55 100 100 100 100 100 100 100 100 100 100 100 100 94 94 87 61 55 32 35 45 52 65 61 61 48 48
0 0 0 6 32 6 0 0 0 0 0 0 0 0 0 0 0 0 0 55 81 19 23 94 100 100 100 100 100 100 100 100 100 100 100 94 90 81 42 32 23 16 13 13 16 19 26 29 26
0 0 0 3 0 0 0 0 0 0 0 0 0 0 0 0 0 0 0 39 55 13 35 100 100 100 100 100 100 100 100 100 100 100 100 97 81 68 48 35 26 6 3 0 3 6 10 10 6
0 0 0 0 0 0 0 0 0 0 0 0 0 0 0 0 0 0 0 32 48 45 77 100 100 100 100 100 100 100 100 100 100 100 100 97 84 77 81 71 48 29 16 13 10 6 3 3 3
0 0 0 0 0 0 0 0 0 0 0 0 0 0 0 0 0 0 3 39 52 61 87 100 100 100 100 100 100 100 100 100 100 100 100 94 94 81 74 55 55 48 39 39 48 42 32 26 13
0 0 0 0 0 0 0 0 0 0 0 0 0 0 0 0 0 0 3 19 26 77 84 97 100 100 100 100 100 100 100 100 100 100 100 100 97 97 84 87 77 77 74 74 77 77 81 90 90
0 0 0 0 0 0 0 0 0 0 0 0 0 0 0 0 0 0 3 13 16 74 84 87 100 100 100 100 100 100 100 100 100 100 100 100 97 97 97 100 94 90 94 94 94 94 94 97 100
0 0 0 0 0 0 0 0 0 0 0 0 0 0 0 0 0 3 3 3 6 74 94 84 84 97 100 100 100 100 100 100 100 100 100 97 97 97 100 100 100 100 100 100 100 100 100 100 100
0 0 0 0 0 0 0 0 0 0 0 0 0 6 6 3 0 3 3 3 10 61 97 81 81 97 97 94 97 100 100 100 100 97 97 100 100 100 100 100 100 100 100 100 100 100 100 100 100
0 0 0 0 0 0 0 0 0 0 0 3 16 26 13 10 19 19 3 3 19 71 84 84 90 100 97 90 97 97 97 100 100 100 100 100 100 100 100 100 100 100 100 100 100 100 100 100 100
0 0 0 0 0 0 0 0 0 0 0 13 26 35 42 45 65 52 48 68 94 90 74 74 100 100 100 100 100 97 97 100 100 100 100 100 100 100 100 100 100 100 100 100 100 100 100 100 100
0 0 0 0 0 0 0 0 0 0 0 3 13 42 65 74 65 71 77 94 100 100 94 65 100 100 100 100 100 100 100 100 100 100 100 100 100 100 100 100 100 100 100 100 100 100 100 100 100
0 0 0 0 0 0 0 0 0 0 0 6 19 42 61 77 71 84 90 94 100 100 100 100 100 100 100 100 100 100 100 100 100 100 100 100 100 100 100 100 100 100 100 100 100 97 97 97 97
0 0 0 0 0 0 0 0 0 0 0 3 10 26 42 55 68 81 94 100 100 100 100 100 100 100 100 100 100 100 100 100 100 97 97 97 100 100 100 100 100 100 100 100 100 97 97 97 97
0 0 0 0 0 0 0 0 0 0 0 0 3 19 26 39 61 87 94 100 100 100 100 100 100 100 100 100 100 100 100 100 100 100 97 97 94 100 100 100 100 100 100 100 100 100 100 97 97
0 0 0 0 0 0 0 0 3 3 0 0 3 13 23 58 58 81 90 97 100 100 100 100 100 100 100 97 100 97 94 94 97 94 90 90 87 90 97 97 94 94 94 97 100 100 100 100 97
0 0 0 0 0 0 0 3 3 3 3 3 6 13 23 71 77 90 97 100 100 100 100 100 100 100 97 94 87 90 94 90 90 84 84 87 71 65 84 90 94 90 90 87 81 84 94 97 94
0 0 0 0 0 0 0 3 3 3 3 6 6 29 52 77 97 94 97 97 94 87 94 97 97 100 97 87 87 90 84 84 81 77 87 61 48 58 74 71 84 87 77 87 84 87 94 97 94
0 0 0 0 0 0 0 0 3 3 6 10 32 61 74 87 94 94 97 94 87 87 90 90 94 90 94 94 90 90 94 84 74 71 71 35 23 39 58 71 77 71 74 81 68 68 71 71 84
0 0 0 0 0 0 0 0 0 0 6 23 45 61 77 84 90 81 81 74 81 84 81 77 77 84 87 94 100 97 97 87 81 74 77 48 39 32 10 68 68 77 84 81 84 81 81 58 61
0 0 0 0 0 0 0 0 0 10 16 29 42 61 71 81 71 65 68 65 68 68 81 74 84 84 90 87 90 97 97 97 94 97 87 81 55 32 45 42 65 77 71 71 77 74 61 48 45
0 0 0 0 0 0 0 0 0 6 26 35 48 65 71 68 68 65 42 35 42 45 55 68 84 87 87 87 94 94 97 97 97 97 94 77 68 58 58 45 48 58 65 71 61 42 55 42 35
0 0 0 0 0 0 0 0 0 16 23 39 48 58 45 55 48 48 45 35 32 29 42 65 68 77 77 81 97 97 97 97 97 97 94 100 94 90 77 65 61 58 71 77 74 68 61 48 48
0 0 0 0 0 0 0 0 0 10 13 29 42 45 48 35 32 19 19 23 23 26 26 48 61 61 68 77 84 87 90 94 100 100 100 94 94 97 87 71 65 68 71 71 61 65 52 55 55
0 0 0 0 0 0 0 0 3 16 16 26 35 35 29 13 6 6 6 6 3 3 3 10 35 45 45 45 52 61 61 71 81 84 87 97 90 90 97 71 68 71 74 77 71 61 52 52 52
0 0 0 0 0 0 0 0 19 13 10 16 13 6 3 3 3 0 0 0 0 0 0 0 6 13 10 13 19 39 45 45 55 58 65 68 71 74 81 87 87 84 84 58 71 52 48 52 55
0 0 0 0 0 0 0 0 3 10 6 3 0 3 0 0 0 0 0 0 0 0 0 0 0 0 0 0 0 10 10 13 23 35 42 48 61 45 61 68 77 87 87 87 81 55 65 58 55
0 0 0 0 0 0 0 0 10 6 3 3 0 0 0 0 0 0 0 0 0 0 0 0 0 0 0 0 0 0 0 0 3 3 10 29 29 35 35 45 65 65 71 81 84 68 61 58 58
0 0 0 0 0 0 0 0 10 26 3 0 0 0 0 0 0 0 0 0 0 0 0 0 0 0 0 0 0 0 0 0 0 0 0 3 10 13 16 23 29 39 55 65 77 52 55 45 35
0 0 0 0 0 0 0 0 0 0 0 0 0 0 0 0 0 0 0 0 0 0 0 0 0 0 0 0 0 0 0 0 0 0 0 0 0 3 0 6 6 13 19 45 68 35 23 26 32

GEFSSGP_con_cape1000_048.txt.gz
Probability
0 0 0 0 0 0 3 3 0 0 0 0 0 0 0 3 0 0 0 0 0 52 97 100 100 100 100 100 94 97 97 97 100 100 100 97 94 90 90 90 94 90 87 90 94 94 84 94 84
0 0 0 0 0 0 0 0 0 0 0 0 0 0 0 16 19 0 0 0 3 65 97 100 100 100 100 100 97 97 97 100 100 100 100 100 97 94 84 81 81 84 77 71 71 71 55 52 61
0 0 0 0 0 0 0 0 0 0 0 0 0 0 0 3 42 10 0 3 13 74 87 100 100 100 100 100 97 97 97 100 100 100 100 100 94 94 90 68 61 55 52 48 45 32 32 39 35
0 0 0 0 0 0 0 0 0 0 0 0 0 0 0 0 26 10 0 6 19 68 90 100 100 100 100 100 100 100 100 100 100 100 100 100 100 100 94 87 77 77 58 45 42 32 29 29 26
0 0 0 0 0 0 0 0 0 0 0 0 0 0 0 6 29 0 0 6 16 71 94 100 100 100 100 100 100 100 100 100 100 100 100 100 100 100 100 94 94 87 74 74 61 48 42 45 35
0 0 0 0 0 0 0 0 0 0 0 0 0 0 0 23 16 0 0 3 23 74 94 100 100 100 100 100 100 100 100 100 100 100 100 100 100 100 100 97 97 94 94 90 94 84 77 74 61
0 0 0 0 0 0 0 0 0 0 0 0 0 0 0 16 13 3 0 0 23 68 94 100 100 100 100 100 100 100 100 100 100 100 100 100 100 100 100 100 97 97 97 97 97 100 100 100 100
0 0 0 0 0 0 0 0 0 0 0 0 0 0 0 3 26 6 10 13 32 45 81 100 100 100 100 100 100 100 100 100 100 100 100 100 100 100 100 100 100 100 100 100 100 100 100 100 100
0 0 0 0 0 0 0 0 0 0 0 0 0 0 0 3 19 26 42 45 35 32 65 97 100 100 100 100 100 100 100 100 100 100 100 100 100 100 100 100 100 100 100 100 100 100 100 100 100
0 0 0 0 0 0 0 0 0 3 0 0 0 0 0 6 16 32 55 68 55 39 29 74 90 94 94 97 100 100 100 100 100 100 100 100 97 97 97 100 100 100 100 100 100 100 100 100 97
0 0 0 0 0 0 0 0 0 0 3 0 0 0 3 6 10 19 48 71 71 48 26 35 65 84 84 71 87 100 100 100 100 100 97 97 97 97 97 97 100 100 100 100 100 100 100 97 97
0 0 0 0 0 0 0 0 0 0 0 0 0 0 3 3 3 6 23 58 81 61 26 23 35 58 61 52 68 84 97 97 100 97 97 97 97 97 90 90 94 90 97 100 97 94 90 94 94
0 0 0 0 0 0 0 0 0 0 0 3 0 0 3 3 3 3 10 39 68 68 48 29 39 55 55 61 61 74 74 81 90 90 94 97 94 94 87 81 84 84 74 81 77 84 87 87 90
0 0 0 0 0 0 0 3 3 3 3 3 0 0 3 3 3 0 3 26 48 55 42 45 61 65 71 77 77 84 84 87 97 97 90 94 94 87 71 68 61 58 55 52 61 61 61 55 71
0 0 0 0 0 0 3 3 3 3 10 13 16 10 19 16 13 6 10 19 35 32 45 61 68 65 71 87 87 87 90 90 84 84 87 90 90 87 68 58 58 48 48 48 39 32 26 19 26
0 0 0 0 0 0 3 3 3 6 10 19 23 26 26 16 16 23 23 29 19 23 39 52 61 61 58 68 74 81 81 74 74 81 77 71 71 68 65 45 39 39 42 29 23 26 23 19 19
0 0 0 0 0 0 3 3 6 6 29 32 32 32 32 26 26 26 39 42 32 26 32 32 35 45 48 65 58 42 48 39 35 35 35 45 48 48 35 23 19 16 16 13 13 19 16 10 6
0 0 0 0 3 3 3 3 6 10 19 26 35 42 32 35 39 32 35 29 32 32 26 23 29 35 35 35 35 39 35 23 19 23 26 29 26 29 16 10 10 10 6 6 6 6 3 3 0
0 0 0 0 3 3 3 10 13 19 23 32 39 45 39 32 29 29 23 26 16 16 13 16 19 26 29 23 19 23 26 16 13 16 13 13 16 16 10 6 3 3 3 3 6 6 6 3 3
0 0 0 0 0 3 6 13 16 29 26 35 29 32 26 32 19 16 16 16 16 6 10 13 10 10 10 19 16 13 13 16 10 10 6 10 6 3 0 3 0 3 3 0 0 6 6 0 3
0 0 0 0 0 3 3 13 23 23 23 29 32 26 19 16 13 13 10 6 10 19 16 13 6 6 6 10 6 6 6 6 3 0 3 3 3 3 0 0 0 0 0 0 0 0 0 0 0
0 0 0 0 0 0 0 0 6 16 16 19 16 13 13 13 6 3 6 6 3 6 6 3 3 0 0 0 3 3 10 6 6 3 0 0 0 0 0 0 0 0 0 0 0 0 0 0 0
0 0 0 0 0 0 0 0 0 3 13 10 6 6 3 0 0 0 3 0 0 0 0 0 3 3 3 3 3 0 0 3 0 3 3 0 0 0 0 0 0 0 0 0 0 0 0 0 0
0 0 0 0 0 0 0 0 0 3 3 6 3 6 3 0 0 0 0 0 0 0 0 0 0 0 0 0 0 0 0 0 0 0 0 0 0 0 0 0 0 3 0 0 0 0 0 0 0
0 0 0 0 0 0 0 0 0 6 10 6 6 3 3 0 0 0 0 0 0 0 0 0 0 0 0 0 0 0 0 0 0 0 0 0 0 0 0 0 0 0 0 0 0 0 0 0 0
0 0 0 0 0 0 0 0 0 3 3 3 3 3 3 0 0 0 0 0 0 0 0 0 0 0 0 0 0 0 0 0 0 0 0 0 0 0 0 0 0 0 0 0 0 0 0 0 0
0 0 0 0 0 0 0 0 0 0 0 0 0 0 0 0 0 0 0 0 0 0 0 0 0 0 0 0 0 0 0 0 0 0 0 0 0 0 0 0 0 0 0 0 0 0 0 0 0
0 0 0 0 0 0 0 0 0 0 0 0 0 0 0 0 0 0 0 0 0 0 0 0 0 0 0 0 0 0 0 0 0 0 0 0 0 0 0 0 0 0 0 0 0 0 0 0 0
0 0 0 0 0 0 0 0 0 0 0 0 0 0 0 0 0 0 0 0 0 0 0 0 0 0 0 0 0 0 0 0 0 0 0 0 0 0 0 0 0 0 0 0 0 0 0 0 0
0 0 0 0 0 0 0 0 0 0 0 0 0 0 0 0 0 0 0 0 0 0 0 0 0 0 0 0 0 0 0 0 0 0 0 0 0 0 0 0 0 0 0 0 0 0 0 0 0

GEFSSGP_con_cape1000_054.txt.gz
Probability
0 0 0 0 0 0 0 0 0 0 0 0 0 0 0 0 0 0 0 0 0 29 87 100 100 100 90 84 90 97 100 100 100 100 100 100 100 100 100 100 100 100 100 100 90 81 71 71 77
0 0 0 0 0 0 0 0 0 0 0 0 0 0 6 29 0 0 0 0 0 61 94 100 100 100 97 84 87 94 100 100 100 100 100 100 100 100 100 100 100 100 97 97 90 77 65 68 68
0 0 0 0 0 0 0 0 0 0 0 0 0 0 6 29 0 0 0 0 19 74 94 97 100 100 100 90 97 97 97 100 100 100 97 97 97 97 97 100 100 100 97 97 90 77 68 68 65
0 0 0 0 0 0 0 0 0 0 0 0 0 0 0 32 3 0 0 6 45 84 94 97 100 100 100 97 97 100 100 100 100 100 97 97 97 97 97 97 97 97 97 90 84 77 74 65 58
0 0 0 0 0 0 0 0 0 0 0 0 0 0 3 35 3 0 10 29 55 81 94 100 100 100 100 100 100 97 100 100 100 100 100 100 100 100 100 100 100 100 97 84 81 81 74 68 58
0 0 0 0 0 0 0 0 0 0 0 0 0 0 0 23 10 10 13 39 48 84 97 100 100 100 100 100 100 100 100 100 100 100 100 100 100 100 100 100 100 100 100 100 97 97 90 90 81
0 0 0 0 0 0 0 0 0 0 0 0 0 0 0 19 13 16 16 42 61 90 97 100 100 100 100 100 100 100 100 100 100 100 100 100 100 100 100 100 100 100 100 100 100 100 100 100 100
0 0 0 0 0 0 0 0 0 0 0 0 0 0 3 26 13 16 19 42 71 90 100 100 100 100 100 100 100 100 100 100 100 100 100 100 100 100 100 100 100 100 100 100 100 100 100 100 100
0 0 0 0 0 0 0 0 0 0 0 0 0 0 0 26 19 16 23 58 74 97 100 100 100 100 100 100 100 100 100 100 100 100 100 100 100 100 100 100 100 100 100 100 100 100 100 100 100
0 0 0 0 0 0 0 0 0 0 0 0 0 0 19 35 23 19 29 48 68 90 100 100 100 100 100 100 100 100 100 100 100 100 100 100 100 100 100 100 100 100 100 100 100 100 100 100 100
0 0 0 0 0 0 0 0 0 0 0 0 0 13 68 45 29 23 16 19 39 58 94 100 100 100 100 90 87 100 100 100 100 100 100 100 100 100 100 100 100 100 100 97 100 100 100 100 100
0 0 0 0 0 0 0 0 0 0 0 0 0 13 71 55 52 52 35 32 23 35 65 81 87 84 84 81 71 74 94 97 100 100 100 94 94 90 90 90 87 90 90 90 97 97 97 100 97
0 0 0 0 0 3 3 3 3 3 0 3 6 10 48 55 48 52 61 48 42 29 39 45 58 58 58 52 42 52 68 81 84 87 87 87 90 84 77 81 74 68 74 71 74 81 81 74 77
0 0 0 0 0 3 3 3 3 3 0 6 6 6 13 19 29 39 58 58 55 39 19 23 45 42 39 39 35 35 55 58 65 77 77 81 87 74 65 68 52 45 45 45 42 48 48 52 58
0 0 0 0 0 3 0 3 6 3 3 10 10 10 16 23 26 26 35 39 42 35 23 23 23 19 16 19 29 32 39 42 45 61 74 74 77 74 68 55 42 32 26 26 23 23 23 29 29
0 0 0 0 0 0 0 0 13 6 13 10 6 13 10 13 23 19 16 23 19 23 16 13 19 19 16 19 16 10 26 29 32 29 45 52 61 52 52 48 29 19 13 13 13 6 10 10 10
0 0 0 3 0 0 6 16 16 13 19 19 19 23 23 23 26 23 16 13 19 19 6 6 10 6 10 6 3 6 19 16 16 23 26 39 39 45 39 29 19 16 6 6 6 3 0 0 0
0 0 3 0 0 16 16 19 13 13 16 16 23 26 23 19 19 10 10 16 13 13 10 10 6 3 3 6 6 6 6 6 10 13 13 13 16 29 23 16 16 6 6 6 3 3 0 0 0
0 0 3 0 0 13 23 19 19 19 13 13 16 16 10 10 16 6 10 6 6 6 6 6 3 3 3 6 6 6 6 6 6 10 10 10 6 6 13 13 10 6 6 6 0 0 0 0 0
3 3 3 0 3 19 26 23 19 16 23 16 16 13 6 10 13 10 3 0 0 3 3 6 3 3 3 3 6 0 0 0 0 0 0 3 6 6 6 3 3 3 6 0 0 0 0 0 0
0 3 3 0 0 10 13 10 16 19 13 13 6 3 3 3 0 0 0 0 0 0 0 0 0 0 0 0 0 0 0 0 0 0 0 0 0 0 3 3 3 3 0 0 0 0 0 0 0
0 0 3 0 0 0 0 0 10 13 6 3 3 0 0 0 0 0 0 0 0 0 0 0 0 0 0 0 0 0 0 0 0 0 0 0 0 0 0 0 0 0 0 0 0 0 0 0 0
0 0 0 0 0 0 0 0 3 3 3 3 0 0 0 0 3 3 3 3 0 0 0 0 0 0 0 0 0 0 0 0 0 0 0 0 0 0 0 0 0 0 0 0 0 0 0 0 0
0 0 0 0 0 0 0 0 0 0 3 0 0 0 0 0 3 3 3 0 0 0 0 0 0 0 0 0 0 0 0 0 0 0 0 0 0 0 0 0 0 0 0 0 0 0 0 0 0
0 0 0 0 0 0 0 0 0 3 0 0 0 0 0 0 0 3 3 0 0 0 0 0 0 0 0 0 0 0 0 0 0 0 0 0 0 0 0 0 0 0 0 0 0 0 0 0 0
0 0 0 0 0 0 0 0 0 3 3 6 3 3 0 0 0 0 0 0 0 0 0 0 0 0 0 0 0 0 0 0 0 0 0 0 0 0 0 0 0 0 0 0 0 0 0 0 0
0 0 0 0 0 0 0 0 0 0 0 0 0 0 0 0 0 0 0 0 0 0 0 0 0 0 0 0 0 0 0 0 0 0 0 0 0 0 0 0 0 0 0 0 0 0 0 0 0
0 0 0 0 0 0 0 0 0 0 0 0 0 0 0 0 0 0 0 0 0 0 0 0 0 0 0 0 0 0 0 0 0 0 0 0 0 0 0 0 0 0 0 0 0 0 0 0 0
0 0 0 0 0 0 0 0 0 0 0 0 0 0 0 0 0 0 0 0 0 0 0 0 0 0 0 0 0 0 0 0 0 0 0 0 0 0 0 0 0 0 0 0 0 0 0 0 0
0 0 0 0 0 0 0 0 0 0 0 0 0 0 0 0 0 0 0 0 0 0 0 0 0 0 0 0 0 0 0 0 0 0 0 0 0 0 0 0 0 0 0 0 0 0 0 0 0

GEFSSGP_con_cape1000_060.txt.gz
Probability
3 0 0 6 74 58 0 0 0 0 0 3 0 0 0 0 0 29 45 10 0 52 100 100 100 100 100 100 100 100 100 100 100 100 100 100 100 100 100 100 100 100 90 84 84 84 84 84 84
3 0 0 32 48 0 0 0 0 0 0 0 0 0 3 6 26 39 23 13 0 58 100 94 100 100 97 100 100 100 100 100 100 100 100 100 100 100 100 100 100 97 87 77 71 65 61 71 77
0 0 0 6 10 0 0 0 0 0 0 0 0 3 3 19 32 19 23 6 3 81 100 100 100 100 97 97 100 100 100 100 100 100 100 100 100 100 100 100 100 97 87 71 71 55 52 45 65
0 0 0 0 0 0 0 0 0 0 0 0 0 0 6 48 23 10 16 13 45 90 100 100 100 100 100 100 100 100 100 100 100 100 100 100 100 100 100 97 97 94 90 84 68 65 55 52 58
0 0 0 0 0 0 0 0 0 0 0 0 0 0 13 68 13 10 29 29 61 77 97 100 100 100 100 100 100 100 100 100 100 100 100 97 97 97 97 97 97 94 94 90 77 77 74 65 55
0 0 0 0 0 0 0 0 0 0 0 0 0 0 35 84 39 29 32 48 42 48 87 100 100 100 100 100 100 100 100 100 100 100 100 100 100 100 100 100 97 97 94 87 84 77 77 71 68
0 0 0 0 0 0 0 0 0 0 0 0 0 0 45 68 48 42 55 45 35 45 81 100 100 100 100 100 100 100 100 100 100 100 100 100 100 97 97 97 97 97 97 94 94 84 81 81 81
0 0 0 0 0 0 0 0 0 0 0 0 3 0 32 87 84 71 77 65 48 48 81 100 100 100 100 100 100 100 100 100 100 100 100 100 97 94 100 100 100 100 100 100 100 100 97 100 100
0 0 0 0 0 0 0 0 0 0 0 0 23 35 61 100 94 97 90 77 74 68 90 90 97 100 97 90 97 97 100 100 100 100 100 100 94 84 100 97 100 100 100 100 100 100 100 100 100
0 0 0 0 0 0 0 0 3 0 3 16 42 71 94 100 100 100 100 100 100 100 97 97 100 100 100 84 100 97 97 100 100 97 97 100 100 100 90 94 100 100 100 100 100 100 100 100 97
0 0 0 0 0 0 0 0 6 6 6 16 35 61 94 97 100 100 100 100 100 100 100 100 100 100 100 97 97 97 97 97 97 97 100 100 100 100 100 100 100 100 100 100 100 100 100 97 97
0 0 0 0 0 0 0 3 6 19 26 32 39 58 90 94 100 100 100 100 100 100 100 100 100 100 100 100 97 97 97 97 97 97 97 100 100 100 100 100 100 100 100 100 97 100 94 97 94
0 0 0 0 0 3 3 6 10 29 35 55 65 74 84 87 97 100 100 100 100 100 100 100 100 100 100 100 97 90 90 94 90 94 94 97 97 97 97 100 100 100 94 94 97 90 90 94 94
0 0 0 0 3 6 6 10 16 19 42 71 68 68 74 87 90 97 100 100 100 100 100 100 100 94 90 87 87 77 77 81 71 74 74 84 90 94 94 97 100 94 87 87 90 90 90 87 87
0 0 0 0 0 0 0 6 19 29 52 65 68 74 77 81 81 87 94 97 97 97 97 97 94 90 90 84 84 77 68 61 55 55 61 71 77 84 84 90 94 84 87 87 94 87 81 77 74
0 0 0 0 0 0 0 6 32 42 58 68 71 68 77 77 74 71 71 81 84 90 90 90 84 81 84 77 77 68 55 52 52 52 52 65 68 65 74 77 68 74 81 81 74 71 61 68 71
0 0 0 0 3 0 3 42 45 52 58 61 65 68 74 74 68 68 71 68 65 77 84 84 77 68 68 74 71 52 52 55 58 52 48 55 52 48 58 65 68 71 74 61 48 52 61 58 61
0 0 0 3 13 19 32 55 52 52 61 65 61 61 65 65 65 55 55 58 58 68 68 68 65 65 61 55 55 52 48 48 39 45 55 42 39 32 39 42 48 48 48 55 58 55 65 61 52
0 0 0 10 26 42 42 61 61 58 61 61 68 65 58 52 45 45 42 45 55 52 55 55 52 52 52 55 48 39 42 39 32 29 23 29 29 19 29 32 39 35 32 39 32 45 42 39 32
0 3 3 26 48 55 58 55 52 52 48 55 52 52 61 61 52 42 35 39 35 32 32 29 45 42 42 55 58 42 48 32 26 26 29 19 16 23 19 32 23 29 32 35 39 58 45 23 23
3 3 3 19 48 45 45 55 61 45 39 32 29 35 32 29 32 32 26 19 16 19 19 16 32 35 35 32 29 26 35 35 26 23 23 16 13 13 19 23 23 23 26 29 48 58 52 23 16
3 3 3 10 23 10 13 3 52 48 48 42 35 29 29 23 26 26 16 19 13 16 13 23 29 29 29 29 26 23 29 19 16 13 6 10 6 3 3 10 10 23 26 32 32 23 39 39 19
3 3 3 3 3 3 3 0 19 32 39 39 35 19 13 16 16 19 10 3 3 3 6 10 19 16 16 23 19 16 6 10 6 0 3 0 0 0 3 3 3 13 19 19 23 32 32 26 32
3 3 3 3 0 0 0 0 3 29 39 32 23 16 19 6 6 3 0 0 0 0 0 0 0 10 19 16 6 6 3 0 0 0 0 0 0 0 0 3 0 3 10 10 16 19 19 32 35
3 3 0 0 0 0 6 0 26 23 19 16 6 13 13 6 6 6 3 0 0 0 0 0 0 10 0 0 0 3 3 3 0 0 0 0 0 0 0 0 0 0 3 3 3 3 10 19 26
0 0 0 0 0 0 0 0 26 16 19 19 10 6 10 10 3 3 6 0 0 0 0 0 0 3 6 0 0 0 0 0 0 0 0 0 0 0 0 0 0 0 0 0 3 0 3 10 16
0 0 0 0 0 0 0 0 26 13 13 10 6 0 3 3 3 3 3 0 0 0 0 0 0 0 0 0 0 0 0 0 0 0 0 0 0 0 0 0 0 0 0 0 3 3 0 3 0
0 0 0 0 0 0 0 0 0 3 3 3 3 3 3 0 0 0 0 3 3 3 0 0 0 0 0 0 0 0 0 0 0 0 0 0 0 0 0 0 0 0 0 0 0 3 0 0 0
3 0 0 0 0 0 0 0 0 0 0 0 0 3 0 0 0 0 0 0 0 0 0 0 0 0 0 0 0 0 0 0 0 0 0 0 0 0 0 0 0 0 0 0 0 0 0 0 0
0 0 0 0 0 0 0 0 0 0 0 0 0 0 0 0 0 0 0 0 0 0 0 0 0 0 0 0 0 0 0 0 0 0 0 0 0 0 0 0 0 0 0 0 0 0 0 0 0

GEFSSGP_con_cape1000_066.txt.gz
Probability
3 0 3 26 71 74 26 0 0 0 0 0 0 0 3 3 29 71 26 13 94 84 71 97 100 100 100 100 100 100 100 100 100 100 100 100 100 100 97 97 94 94 90 94 94 87 87 87 90
0 0 13 71 77 65 0 0 0 0 0 0 0 0 6 6 10 19 16 45 94 87 81 94 100 100 100 100 100 100 100 100 100 100 100 100 100 100 94 94 90 90 84 81 87 77 77 84 84
3 6 16 77 74 10 0 0 0 0 0 0 0 0 6 6 10 19 23 61 97 84 87 100 100 100 100 100 100 100 100 100 100 100 100 100 100 100 100 97 90 90 77 65 68 65 61 61 65
10 0 6 6 3 0 0 0 0 0 0 0 0 3 3 0 3 16 29 74 100 97 94 100 100 100 100 100 100 100 100 100 100 100 100 100 100 97 100 100 97 90 77 71 65 48 48 48 52
10 3 6 0 0 0 0 0 0 0 0 0 0 10 10 3 10 6 35 74 100 100 100 100 100 100 100 100 100 100 100 100 100 100 100 100 100 100 100 100 97 97 87 71 65 65 52 52 45
0 0 0 0 0 0 0 0 0 0 0 3 13 26 19 3 6 10 32 58 77 100 100 100 100 100 100 100 100 100 100 100 100 100 100 100 100 100 97 97 100 97 94 87 74 71 65 68 61
0 0 0 0 0 0 0 0 0 0 3 3 13 32 23 10 6 10 23 42 65 100 100 100 100 100 100 100 100 100 100 100 100 100 100 100 100 100 100 100 100 100 94 94 90 87 77 81 84
0 0 0 0 0 0 0 0 0 0 3 6 13 35 26 19 6 13 23 23 48 100 100 100 100 100 100 100 100 100 100 100 100 100 100 100 100 100 100 100 100 100 100 100 100 90 87 90 90
0 0 0 0 0 0 0 0 3 6 6 10 32 52 42 42 23 19 19 23 58 94 100 100 100 100 100 100 100 100 100 100 100 100 100 100 100 100 100 100 100 100 100 100 100 100 100 100 100
0 0 0 0 0 0 3 3 3 3 10 23 23 45 52 52 52 58 39 39 74 94 100 100 100 100 100 100 100 100 100 100 100 100 100 100 100 100 97 97 97 97 97 100 100 100 100 100 100
0 0 0 0 0 0 3 3 10 13 16 19 32 35 55 71 84 81 81 94 100 100 100 97 100 100 100 100 100 100 100 100 100 100 97 100 100 100 100 94 97 97 97 97 97 97 100 100 97
0 0 0 0 0 3 3 3 16 16 23 23 32 48 61 81 87 97 97 97 100 97 100 100 100 100 100 100 100 100 100 100 100 100 97 100 100 100 100 97 97 97 97 97 97 97 97 97 97
0 0 0 0 0 3 3 10 16 23 26 42 52 65 77 84 90 97 97 97 100 100 97 97 97 97 100 100 100 100 100 100 97 97 97 100 100 100 97 97 97 97 94 94 90 94 87 90 94
0 0 0 0 0 3 3 3 13 26 42 65 77 87 94 94 97 97 100 100 100 97 97 97 97 97 100 100 100 97 94 100 100 97 94 100 100 100 100 97 97 97 90 87 87 87 87 84 90
0 0 0 0 0 3 3 6 19 29 42 71 87 94 97 94 97 100 97 97 94 94 90 90 94 97 100 100 97 97 94 97 100 100 94 94 94 97 97 97 94 81 81 84 81 81 81 81 74
0 0 0 0 0 0 0 3 26 29 61 87 94 94 94 97 94 97 97 97 97 100 97 97 94 100 100 100 100 97 94 97 97 97 90 90 90 84 87 84 84 81 74 74 65 71 52 45 42
0 0 0 0 0 0 0 23 55 71 77 90 94 94 94 90 87 87 87 90 90 94 97 97 97 87 87 97 87 87 94 90 90 90 74 74 74 77 77 77 81 71 68 65 42 42 32 35 32
0 0 0 0 3 3 13 52 58 65 81 87 90 90 87 84 84 74 74 81 84 87 94 94 90 90 90 87 90 87 84 77 81 74 68 65 68 65 55 58 68 65 55 39 29 26 29 42 39
0 0 0 0 0 6 19 45 61 61 77 77 68 74 77 77 68 65 65 65 65 81 90 84 84 81 87 77 77 68 68 71 68 71 52 45 42 48 48 39 52 42 32 35 26 19 19 23 29
0 0 0 0 0 10 16 29 52 61 71 68 74 74 68 68 68 61 58 52 55 68 71 61 61 55 61 71 71 74 58 61 52 52 39 29 29 35 23 32 32 29 32 32 23 23 29 16 16
0 0 0 0 0 6 19 16 32 55 61 58 58 61 55 58 58 52 45 42 42 35 42 35 55 48 39 45 45 39 45 58 42 39 39 29 23 19 29 23 23 23 29 32 29 26 16 10 10
0 0 0 0 0 0 0 13 23 35 42 52 45 52 32 29 35 35 32 23 19 16 23 35 42 35 39 48 48 42 32 26 26 32 32 26 13 16 19 19 13 10 13 19 19 19 26 16 6
0 0 0 0 0 0 0 0 23 23 29 35 39 26 23 13 6 10 6 16 16 19 13 32 48 42 39 42 42 42 23 26 26 26 19 26 13 13 10 10 10 10 6 6 6 10 13 16 13
0 0 0 0 0 0 0 0 13 16 26 26 29 19 16 3 0 3 3 16 19 13 16 23 42 45 42 52 45 42 32 29 19 23 16 6 6 10 6 6 3 3 3 3 3 3 0 6 3
0 0 0 0 0 0 0 0 3 0 10 19 19 13 10 13 3 3 3 16 19 19 19 16 26 35 35 29 29 29 29 19 16 13 0 3 0 0 0 0 0 0 3 3 0 0 0 0 0
0 0 0 0 0 0 0 6 19 0 3 3 3 3 3 0 3 3 3 3 6 6 19 13 13 19 13 10 19 29 16 3 0 3 0 0 0 0 0 0 0 0 0 0 0 0 0 0 0
0 0 0 0 0 0 0 10 10 10 3 3 3 3 0 0 0 0 0 0 0 0 3 3 6 6 10 10 3 6 3 6 0 0 0 0 0 0 0 0 3 0 0 0 0 0 0 0 0
0 0 0 0 0 0 0 6 10 3 6 3 3 3 3 0 0 0 0 0 0 0 0 0 0 0 0 0 3 0 0 0 0 0 0 0 0 0 0 0 0 0 0 0 0 0 0 0 0
0 0 0 0 0 0 0 3 3 3 0 0 0 0 0 0 0 0 0 0 0 0 0 0 0 0 0 0 0 0 3 3 0 0 0 0 0 0 0 0 0 0 0 0 0 0 0 0 0
0 0 0 0 0 0 0 0 0 0 0 0 0 0 0 0 0 0 0 0 0 0 0 0 0 0 0 0 0 3 3 3 0 0 0 0 0 0 0 0 0 0 0 0 0 0 0 0 0

GEFSSGP_con_cape1000_072.txt.gz
Probability
16 3 0 0 0 10 16 0 3 0 0 0 0 6 19 32 45 23 13 29 48 94 100 100 100 100 100 100 100 100 100 100 100 100 100 100 100 100 100 100 100 100 100 100 100 100 100 100 100
3 0 0 0 10 10 3 0 0 0 0 3 3 3 6 26 65 55 29 35 55 94 100 100 100 100 100 100 100 100 100 100 100 100 100 100 100 100 100 100 100 100 100 100 100 97 97 97 100
0 0 0 0 10 23 6 0 0 0 0 3 0 0 0 23 71 68 39 42 58 94 100 100 100 100 100 100 100 100 100 100 100 100 100 100 100 100 100 100 100 100 100 100 100 97 97 97 97
0 0 0 0 6 6 3 3 0 3 3 0 0 0 0 19 65 68 39 52 65 94 100 100 100 100 100 100 100 100 100 100 100 100 100 100 100 100 100 97 100 100 100 97 97 97 94 97 97
0 0 0 0 3 0 0 0 3 3 6 0 0 0 10 48 77 58 52 45 68 94 100 100 100 100 100 100 100 100 100 100 100 100 100 100 100 100 100 100 100 100 100 97 97 100 97 97 94
0 0 0 0 0 0 0 0 0 6 6 3 3 3 10 65 81 74 55 45 71 100 100 100 100 100 100 100 100 100 100 100 100 100 100 100 100 100 100 100 100 100 100 100 100 100 97 97 97
0 0 0 0 0 0 0 0 3 10 10 13 6 0 10 42 65 71 71 68 74 100 100 100 100 100 100 100 100 100 100 100 100 100 100 100 100 100 100 100 100 100 100 100 100 100 97 100 97
0 0 0 0 0 0 0 0 0 10 32 13 16 0 6 23 55 77 81 84 87 97 100 100 100 100 100 100 100 100 100 100 100 100 100 100 100 100 100 100 100 100 100 100 100 100 100 100 100
0 0 0 0 0 0 0 0 10 23 19 29 16 10 6 32 61 77 90 97 87 94 97 100 100 100 100 100 100 100 100 100 100 100 100 100 100 100 100 100 97 97 97 97 100 100 100 100 100
0 0 0 0 3 0 3 3 0 13 23 16 13 16 23 39 58 68 94 97 90 90 94 97 94 97 97 100 100 100 100 100 100 100 100 100 100 94 97 97 97 97 97 97 97 97 97 97 100
0 0 0 0 3 3 6 13 16 23 32 32 23 32 39 42 52 61 68 90 90 81 87 90 94 97 97 97 97 100 100 100 100 100 100 97 97 94 97 97 97 97 97 97 97 97 97 97 94
0 0 0 0 3 3 10 23 32 45 42 39 42 61 74 52 52 61 77 77 87 90 90 87 94 94 90 97 97 94 100 100 100 97 94 97 97 94 87 68 74 84 87 87 90 97 94 84 87
0 0 0 3 3 6 16 29 48 55 48 65 71 84 74 61 61 68 74 68 71 77 84 87 87 90 87 84 90 84 87 87 94 87 90 90 87 77 61 55 58 68 81 81 81 77 71 71 71
0 0 0 3 6 10 19 26 52 52 68 84 81 84 90 74 74 77 65 55 65 74 74 81 77 74 71 74 77 77 65 61 58 58 58 65 68 55 45 39 39 39 45 55 58 55 58 58 58
0 0 0 3 3 13 29 45 65 61 71 77 87 81 81 81 71 71 68 74 74 74 71 68 68 71 58 55 55 48 45 39 39 35 32 39 42 42 32 35 39 35 32 32 35 32 26 29 32
0 0 0 3 3 3 26 48 68 68 71 68 71 84 74 68 77 68 58 68 65 52 48 58 65 61 52 52 45 32 29 19 19 19 26 29 32 32 26 29 26 26 26 16 19 23 19 19 16
0 0 0 0 3 6 23 39 42 65 71 65 65 65 61 55 55 55 61 55 55 48 52 52 48 42 35 26 23 35 29 26 23 23 19 26 19 26 26 23 19 16 13 10 16 10 10 6 6
0 0 0 0 10 19 29 39 39 48 61 61 65 65 61 52 55 52 58 58 55 42 42 39 32 32 26 23 26 23 23 19 13 13 16 19 19 16 10 6 6 0 0 0 3 0 0 0 3
0 0 3 3 10 19 29 32 35 32 39 48 52 55 55 52 52 55 52 42 35 29 29 29 26 23 23 23 19 16 13 10 10 10 10 13 16 10 10 3 0 0 0 0 0 0 0 0 0
0 0 0 6 16 19 23 23 16 19 32 29 48 48 39 42 39 42 35 39 39 32 26 19 16 16 16 16 16 13 13 10 10 6 6 13 6 6 6 0 0 3 3 0 0 0 0 0 0
0 0 0 0 10 13 13 13 16 16 26 26 32 45 39 35 35 39 32 29 23 16 16 10 10 13 13 6 6 10 6 3 3 3 3 3 3 6 6 6 3 3 0 0 0 0 0 0 0
0 0 0 0 0 3 3 3 10 10 16 26 26 26 16 29 26 19 26 16 16 13 13 10 10 6 6 6 6 6 6 3 0 0 3 3 3 3 3 3 3 3 0 0 0 0 0 0 0
0 0 0 0 0 0 0 0 3 6 10 13 19 16 13 16 16 16 19 19 16 16 13 10 10 6 6 6 6 6 6 0 0 0 0 0 0 3 3 3 3 3 0 0 0 0 0 0 0
0 0 0 0 0 0 0 0 3 6 10 10 16 13 6 6 10 3 0 3 3 3 6 6 6 6 3 3 3 3 0 0 0 0 0 0 0 0 0 0 0 0 0 0 0 0 0 0 0
0 0 0 0 0 0 0 0 0 0 3 0 6 6 6 0 0 0 0 0 0 0 0 0 0 0 3 3 3 0 0 0 0 0 0 0 0 0 0 0 0 0 0 0 0 0 0 0 0
0 0 0 0 0 0 0 0 0 0 0 0 3 3 3 0 0 0 0 0 0 0 0 0 0 0 0 0 0 0 0 0 0 0 0 0 0 0 0 0 0 0 0 0 0 0 0 0 0
0 0 0 0 0 0 0 0 0 0 0 0 0 3 3 0 0 0 0 0 0 0 0 0 0 0 0 0 0 0 0 0 0 0 0 0 0 0 0 0 0 0 0 0 0 0 0 0 0
0 0 0 0 0 0 0 0 0 0 0 0 0 0 0 0 0 0 0 0 0 0 0 0 0 0 0 0 0 0 0 0 0 0 0 0 0 0 0 0 0 0 0 0 0 0 0 0 0
0 0 0 0 0 0 0 0 0 0 0 0 0 0 0 0 0 0 0 0 0 0 0 0 0 0 0 0 0 0 0 0 0 0 0 0 0 0 0 0 0 0 0 0 0 0 0 0 0
0 0 0 0 0 0 0 0 0 0 0 0 0 0 0 0 0 0 0 0 0 0 0 0 0 0 0 0 0 0 0 0 0 0 0 0 0 0 0 0 0 0 0 0 0 0 0 0 0

GEFSSGP_con_cape1000_078.txt.gz
Probability
23 6 0 0 3 0 0 0 0 0 0 0 6 23 39 48 23 3 6 29 68 100 100 100 100 100 100 100 100 100 100 100 100 100 100 100 100 100 100 100 100 100 97 97 97 97 100 100 100
6 0 0 0 3 0 0 0 0 0 0 0 0 19 35 71 42 32 29 55 87 100 100 100 100 100 100 100 100 100 100 100 100 100 100 100 100 100 100 100 100 100 100 100 97 100 100 97 100
3 0 0 0 6 0 0 0 0 0 0 0 0 0 35 71 52 35 39 84 100 100 100 100 100 100 100 100 100 100 100 100 100 100 100 100 100 100 100 100 100 100 100 100 100 97 97 94 100
0 0 0 0 0 3 6 3 0 0 0 0 0 16 39 81 65 35 61 90 100 100 100 100 100 100 100 100 100 100 100 100 100 100 100 100 100 100 100 100 100 100 100 100 100 97 97 97 97
0 0 0 0 0 0 3 3 0 0 0 0 10 29 65 68 61 58 87 100 100 100 100 100 100 100 100 100 100 100 100 100 100 100 100 100 100 100 100 100 100 100 100 100 100 97 97 97 97
0 0 0 0 0 0 0 0 0 6 6 6 13 32 65 58 52 74 94 100 100 100 100 100 100 100 100 100 100 100 100 100 100 100 100 100 100 100 100 100 100 100 100 97 97 97 97 100 100
0 0 0 0 0 0 0 3 3 6 6 6 16 55 68 61 55 68 90 100 100 100 100 100 100 100 100 100 100 100 100 100 100 100 100 100 100 100 100 100 100 100 97 97 97 97 97 97 100
0 0 0 0 0 0 3 3 6 19 19 16 35 58 71 68 58 68 94 100 100 100 100 100 100 100 100 100 100 100 100 100 100 100 100 100 100 100 100 100 100 100 97 97 97 97 97 97 97
0 0 0 0 0 0 0 3 13 26 23 26 29 52 74 77 68 77 94 100 100 100 100 100 100 100 100 100 100 100 100 100 100 100 100 100 100 100 100 100 100 100 97 97 97 97 97 97 97
0 0 0 0 0 0 10 13 19 32 32 48 65 74 84 84 77 71 71 94 97 100 97 97 97 94 94 94 100 100 100 100 100 100 100 100 100 100 100 97 97 97 97 97 97 97 97 97 97
0 0 0 0 3 3 10 13 35 35 42 48 74 87 87 90 87 84 74 65 81 90 97 94 94 90 94 94 94 94 90 97 100 100 100 100 97 97 97 97 97 97 97 97 97 97 97 97 97
0 0 0 0 3 3 6 23 39 42 48 65 81 87 90 97 100 90 81 71 74 77 87 77 87 87 90 90 90 87 90 90 90 94 97 94 94 94 94 97 97 84 94 94 90 90 94 94 94
0 0 0 0 10 19 26 39 45 55 68 87 87 90 87 87 84 81 77 61 52 61 74 74 84 90 87 77 81 81 84 84 81 84 84 84 90 84 84 71 68 68 68 77 71 77 84 81 81
0 0 0 3 23 35 45 48 45 58 74 77 77 71 74 74 71 58 61 71 71 65 71 74 71 74 74 71 65 58 58 65 61 58 65 61 65 65 52 42 39 42 39 45 52 55 55 58 55
0 0 0 10 10 35 65 68 55 58 71 74 74 81 74 65 58 52 58 65 61 65 58 68 58 55 48 42 45 39 39 35 26 26 32 32 42 45 42 29 26 23 29 29 29 35 35 39 39
0 0 0 0 10 23 52 58 55 52 61 65 71 74 68 61 61 58 52 45 45 48 39 35 52 35 32 26 19 16 16 16 16 19 19 23 29 26 16 16 13 13 13 13 16 16 19 23 23
0 0 0 6 10 32 48 55 48 48 58 52 48 58 61 58 55 52 48 45 42 42 29 29 32 32 26 19 13 13 10 10 16 13 13 10 16 16 10 10 6 3 0 0 0 0 0 0 0
0 0 6 13 13 39 45 45 39 42 45 52 52 52 55 52 45 48 45 32 29 29 29 19 16 13 10 10 10 6 10 0 6 6 10 6 6 10 6 6 3 0 0 0 0 0 0 0 0
0 0 13 23 26 26 29 39 32 35 35 35 29 29 26 26 35 35 29 35 29 26 26 26 16 10 6 6 6 6 3 0 0 0 0 3 3 3 3 0 0 0 0 0 0 0 0 0 0
0 3 10 16 26 26 23 23 23 19 29 29 26 26 26 19 26 26 26 23 23 26 26 19 13 10 3 3 0 0 0 0 0 0 0 0 0 0 0 0 0 0 0 0 0 0 0 0 0
0 0 3 16 16 13 16 16 16 19 16 23 23 23 19 19 19 19 16 19 23 23 13 13 10 3 0 0 0 0 0 0 0 0 0 0 0 0 0 0 0 0 0 0 0 0 0 0 0
0 0 3 6 3 6 0 3 6 6 10 13 19 16 19 13 13 13 13 13 16 13 6 6 3 3 3 3 3 3 3 0 0 0 0 0 0 0 0 0 0 0 0 0 0 0 0 0 0
0 0 0 0 0 0 0 0 0 0 6 3 10 16 16 13 10 10 13 10 10 10 10 6 3 3 3 3 3 3 3 0 0 0 0 0 0 0 0 0 0 0 0 0 0 0 0 0 0
0 0 0 0 0 0 0 0 0 0 0 0 3 10 6 6 6 10 10 10 10 10 6 3 3 3 3 3 3 3 3 0 0 0 0 0 0 0 0 0 0 0 0 0 0 0 0 0 0
0 0 0 0 0 0 0 0 0 0 0 0 0 3 3 6 6 6 3 3 3 3 3 0 3 3 0 0 0 0 0 0 0 0 0 0 0 0 0 0 0 0 0 0 0 0 0 0 0
0 0 0 0 0 0 0 0 0 0 0 0 0 0 3 0 0 3 0 0 0 0 0 0 0 0 0 0 0 0 0 0 0 0 0 0 0 0 0 0 0 0 0 0 0 0 0 0 0
0 0 0 0 0 0 0 0 0 0 0 0 0 0 0 0 0 0 0 0 0 0 0 0 0 0 0 0 0 0 0 0 0 0 0 0 0 0 0 0 0 0 0 0 0 0 0 0 0
0 0 0 0 0 0 0 0 0 0 0 0 0 0 0 0 0 0 0 0 0 0 0 0 0 0 0 0 0 0 0 0 0 0 0 0 0 0 0 0 0 0 0 0 0 0 0 0 0
0 0 0 0 0 0 0 0 0 0 0 0 0 0 0 0 0 0 0 0 0 0 0 0 0 0 0 0 0 0 0 0 0 0 0 0 0 0 0 0 0 0 0 0 0 0 0 0 0
0 0 0 0 0 0 0 0 0 0 0 0 0 0 0 0 0 0 0 0 0 0 0 0 0 0 0 0 0 0 0 0 0 0 0 0 0 0 0 0 0 0 0 0 0 0 0 0 0

GEFSSGP_con_cape1000_084.txt.gz
Probability
35 19 10 6 52 39 3 0 3 6 13 16 23 35 48 58 71 81 84 58 71 94 100 100 100 100 100 100 100 100 100 100 100 100 100 100 100 100 100 100 100 100 97 97 97 100 97 94 100
16 6 6 32 58 10 0 0 0 6 16 19 19 23 48 71 81 87 68 71 90 100 100 100 100 100 100 100 100 100 100 100 100 100 100 100 100 100 100 100 100 100 97 97 94 97 90 97 94
6 3 19 26 29 3 0 3 6 3 6 6 19 35 48 68 71 71 84 90 94 100 100 100 100 100 100 100 100 100 100 100 100 100 100 100 100 100 100 100 100 100 100 100 97 97 90 90 94
6 16 13 19 10 0 0 3 6 6 16 19 26 52 81 94 74 68 94 90 97 100 100 100 100 100 100 100 100 100 100 100 100 100 100 100 100 100 100 100 100 100 100 100 90 90 84 84 90
6 3 3 3 0 0 0 0 13 10 16 19 26 45 94 100 90 90 97 94 97 100 100 100 100 100 100 100 100 100 100 100 100 100 100 100 100 100 100 97 97 100 100 94 87 87 90 87 87
0 0 0 0 0 0 0 6 6 19 19 35 35 65 100 97 94 94 94 94 90 94 100 100 100 100 100 100 100 100 100 100 100 100 100 100 100 100 100 97 97 97 97 90 90 84 87 94 94
0 0 0 0 0 0 0 13 13 19 35 45 55 77 94 97 94 94 97 90 84 90 100 100 100 100 100 100 100 100 100 100 100 100 100 100 100 100 100 100 97 97 97 97 97 90 84 87 97
0 0 0 0 0 0 0 10 23 29 45 61 61 77 87 100 97 97 100 94 90 94 100 100 100 100 100 100 100 100 100 100 100 100 100 100 100 100 100 100 100 97 97 97 97 97 97 94 94
0 0 0 0 0 0 3 10 26 39 61 74 81 90 100 100 100 100 100 100 100 97 100 100 100 100 100 100 100 100 100 100 100 100 100 97 100 100 100 100 100 97 97 97 97 97 94 97 97
0 0 0 0 0 0 6 16 29 42 68 74 90 100 100 100 97 94 97 100 100 100 100 100 100 100 100 100 100 100 100 100 100 100 100 97 100 100 100 97 97 97 97 97 97 100 97 97 94
0 0 0 0 0 0 6 19 42 48 58 81 87 97 100 97 97 90 87 94 97 100 100 100 100 100 100 100 100 100 100 97 97 97 97 97 97 100 94 94 94 97 97 97 97 94 97 90 87
0 0 0 0 0 0 10 26 52 55 77 87 90 97 100 97 97 90 84 87 97 100 100 100 100 100 100 97 97 97 94 94 94 97 94 97 97 94 90 94 87 97 97 97 100 100 94 97 87
0 0 0 6 6 16 23 45 55 77 87 90 94 97 97 100 97 87 87 90 97 100 97 94 94 100 100 97 97 90 97 87 94 97 97 90 87 84 87 94 94 87 87 87 84 87 90 90 94
0 0 3 10 32 39 52 52 65 84 94 94 97 97 94 100 97 97 94 97 94 97 97 100 97 97 94 94 94 94 90 94 90 94 94 94 87 84 84 81 81 77 77 77 74 77 81 84 84
3 3 10 19 35 52 52 68 90 87 87 90 94 97 100 100 97 97 100 100 97 94 94 90 87 87 90 90 94 87 90 84 84 77 81 74 74 81 81 61 65 65 58 71 71 71 61 68 61
0 0 0 23 42 55 48 58 90 90 90 90 90 90 94 94 94 94 94 94 90 94 94 87 77 87 84 84 87 81 74 68 71 68 55 58 48 55 68 52 45 45 52 45 45 42 42 42 45
0 0 0 13 32 52 52 68 81 87 87 87 81 74 81 81 81 74 77 81 84 87 87 87 84 74 77 81 68 61 71 61 52 45 39 45 42 35 42 42 35 32 26 26 23 26 32 29 29
0 0 0 13 42 52 45 77 77 81 77 74 74 68 68 74 71 71 65 65 61 71 71 81 81 81 71 58 65 55 48 35 32 29 35 35 32 32 23 19 19 13 16 16 13 10 23 29 26
0 3 3 35 39 45 45 65 71 74 68 68 61 55 58 55 65 65 65 61 58 65 71 71 68 74 71 65 52 52 39 39 32 26 26 29 23 19 19 10 13 16 6 10 10 10 6 6 13
0 3 10 32 48 39 42 52 58 65 58 55 55 55 52 52 55 55 61 52 52 68 68 74 77 71 68 61 61 52 45 39 32 29 29 23 19 19 16 13 10 16 16 10 10 13 6 3 6
0 0 6 16 19 32 29 32 42 48 45 52 48 48 42 39 26 35 39 45 52 61 74 55 81 81 68 61 55 45 48 35 26 19 26 23 16 13 16 10 10 13 13 6 10 10 6 6 6
0 3 3 10 6 6 10 6 23 35 35 32 35 35 32 19 19 26 32 39 52 61 68 68 74 74 68 61 45 42 32 16 16 26 19 19 16 13 10 10 10 6 6 6 6 3 3 3 3
3 0 3 3 0 0 0 0 3 23 16 23 23 32 23 16 23 32 42 48 55 52 52 55 71 65 55 55 39 45 32 19 13 16 16 19 16 13 10 10 6 6 6 6 6 6 6 3 3
0 3 0 0 0 0 0 0 0 10 13 16 16 19 26 16 19 19 32 39 48 45 58 55 61 58 52 39 35 32 29 23 23 23 19 16 10 13 0 3 10 6 6 6 6 6 6 6 3
0 3 0 0 0 0 0 0 0 3 3 6 6 13 13 13 13 19 29 39 52 58 48 52 55 48 35 26 23 16 16 19 16 13 13 10 3 3 3 0 3 3 0 3 3 6 3 3 3
3 3 0 0 0 0 0 0 0 0 3 3 6 10 13 13 19 23 32 29 35 35 35 26 26 29 29 23 23 19 16 13 10 6 6 3 0 0 0 0 0 0 0 0 0 0 0 0 0
3 0 0 0 0 0 0 0 0 0 0 3 3 6 10 3 6 19 19 23 26 23 26 23 23 23 23 19 19 13 6 6 6 3 3 0 0 0 0 0 0 0 0 0 0 0 0 0 0
0 0 0 0 0 0 0 0 0 3 0 3 0 3 6 3 3 16 16 19 16 19 23 23 23 23 13 6 6 6 6 3 3 3 0 0 0 0 0 0 0 0 0 0 0 0 0 0 0
0 0 0 0 0 0 0 0 0 0 0 3 0 0 6 3 10 13 10 6 13 16 16 16 13 10 6 6 6 3 3 3 0 0 0 0 0 0 0 0 0 0 0 0 0 0 0 0 0
0 0 0 0 0 0 0 0 0 0 0 0 0 0 3 6 10 6 3 10 10 13 10 6 10 6 6 3 3 3 3 0 0 0 0 0 0 0 0 0 0 0 0 0 0 0 0 0 0

GEFSSGP_con_cape1000_090.txt.gz
Probability
45 35 45 68 84 87 42 6 0 3 3 0 3 23 55 84 68 65 48 97 100 100 100 100 100 100 100 100 100 100 100 100 100 100 100 100 100 100 100 94 94 90 97 97 100 100 97 97 97
26 42 58 65 77 48 0 0 0 3 6 6 6 19 52 52 58 48 55 97 100 97 100 100 100 100 100 100 100 100 100 100 100 100 100 100 100 100 100 97 100 97 94 87 94 94 97 94 94
32 55 48 52 42 6 0 0 0 0 0 6 19 32 48 61 48 52 68 97 97 100 100 100 100 100 100 100 100 100 100 100 100 100 100 100 100 100 100 100 94 94 94 90 94 94 84 87 87
55 39 35 32 13 3 0 0 0 0 0 6 29 52 61 52 55 61 77 97 100 100 100 100 100 100 100 100 100 100 100 100 100 100 100 100 97 97 94 94 94 97 97 94 94 87 84 87 87
42 29 16 10 3 0 0 0 0 0 0 16 45 65 65 58 65 58 87 100 100 100 100 100 100 100 100 100 100 100 100 100 100 100 100 100 100 94 94 97 94 90 87 90 90 87 84 81 74
19 6 0 0 0 0 0 0 0 6 3 23 52 71 68 68 71 65 81 94 100 100 100 100 100 100 100 100 100 100 100 100 100 100 100 100 97 97 97 97 94 87 87 87 90 87 87 81 77
6 3 0 0 0 0 0 0 6 3 6 19 55 68 65 65 74 74 77 97 100 100 100 100 100 100 100 100 100 100 100 100 100 100 100 100 100 100 94 94 94 90 87 87 87 87 84 84 87
0 0 0 0 0 0 0 0 3 3 16 42 55 58 71 71 77 77 71 84 100 100 100 100 100 100 100 100 100 100 100 100 100 100 100 97 100 100 97 97 97 97 97 94 94 90 87 90 94
0 0 0 0 0 0 0 3 6 16 26 39 68 81 68 74 84 71 71 87 97 97 97 100 100 100 100 100 100 100 100 100 100 97 94 94 94 94 97 97 97 94 97 97 97 100 100 97 97
0 0 0 0 0 0 3 0 3 13 32 58 77 84 84 84 81 87 90 97 100 97 97 97 97 97 97 100 100 100 100 100 100 97 94 90 90 94 90 87 97 94 94 97 97 100 100 94 94
0 0 0 0 0 0 0 0 0 13 39 48 77 84 84 81 87 90 90 97 100 100 97 97 97 97 97 100 100 100 100 100 94 94 94 94 94 81 81 84 84 90 94 100 100 97 97 97 87
0 0 0 0 0 0 0 10 3 29 45 55 74 81 90 87 84 90 87 94 100 100 100 97 97 97 100 97 97 97 100 97 94 94 90 87 84 77 84 77 77 87 94 100 100 94 90 87 87
0 0 0 0 0 0 6 6 16 39 45 52 74 84 84 90 84 87 87 94 100 100 97 100 97 97 94 94 94 94 94 97 94 94 94 90 81 77 77 71 81 84 87 94 100 94 87 81 77
0 0 0 0 0 0 3 6 10 42 48 58 68 68 68 74 74 81 87 90 94 100 97 94 90 94 97 97 94 97 97 94 94 94 94 94 81 87 84 87 87 90 87 87 74 68 74 71 74
0 0 0 0 0 0 3 10 10 42 52 55 58 68 77 77 74 81 84 90 97 97 94 90 94 94 94 94 94 90 94 94 90 94 94 84 84 81 77 71 74 77 68 77 81 61 58 52 48
0 0 0 0 0 0 0 10 16 42 55 68 65 74 81 81 84 84 84 94 90 94 94 90 90 90 90 90 90 90 81 81 84 74 68 55 58 55 58 61 61 71 61 58 55 55 42 39 39
0 0 0 0 0 0 0 10 23 35 55 65 74 71 77 81 81 84 81 90 87 87 90 87 87 87 84 87 87 84 84 71 77 65 55 48 45 42 42 55 58 42 42 48 23 32 35 35 35
0 0 0 0 0 0 10 13 16 35 45 58 68 58 61 77 81 81 77 81 81 87 90 90 90 84 87 84 84 77 71 65 58 58 55 42 42 39 39 48 39 32 35 39 29 26 35 32 35
0 0 0 0 0 0 13 19 23 39 52 61 68 71 68 68 55 58 58 65 77 84 84 87 81 77 84 87 94 84 74 65 55 52 45 39 26 26 32 26 32 32 29 32 26 23 16 23 26
0 0 0 0 0 0 10 19 29 39 48 55 55 71 65 61 52 55 55 52 71 87 90 90 87 84 84 90 94 90 74 65 61 58 48 35 35 29 13 45 29 39 35 26 23 19 10 10 6
0 0 0 0 0 3 3 3 19 35 45 45 48 61 55 48 45 45 48 55 71 84 90 87 90 90 90 87 77 71 74 77 71 68 71 48 32 29 35 29 29 35 26 19 23 16 13 6 3
0 0 0 0 0 0 0 0 13 16 32 35 35 48 52 42 45 39 42 58 61 77 90 94 94 94 94 90 84 74 68 65 65 58 55 45 39 35 39 32 39 35 29 29 16 6 6 3 3
0 0 0 0 0 0 0 0 3 6 13 26 32 35 42 29 32 32 42 55 55 61 87 94 97 94 81 68 65 65 65 48 42 42 42 42 42 42 39 39 35 35 29 23 10 10 10 6 6
0 0 0 0 0 0 0 0 3 6 16 26 32 35 29 26 26 23 29 55 52 55 68 77 81 77 71 55 52 45 48 42 39 35 35 29 32 35 29 23 35 26 19 16 10 6 6 6 6
0 0 3 0 0 0 0 0 0 0 6 19 32 23 29 19 13 19 35 45 58 58 58 61 74 65 55 45 39 35 35 32 32 32 19 19 13 16 10 6 6 3 3 3 3 3 0 6 3
0 0 0 0 0 0 0 0 0 3 3 3 23 19 16 13 10 10 32 52 48 48 48 48 58 55 42 32 32 32 29 29 23 19 13 6 10 3 0 0 0 3 3 3 3 3 3 0 0
0 0 0 0 0 0 0 0 0 3 0 6 10 13 13 3 3 6 13 29 32 39 42 35 48 32 26 26 26 26 26 23 6 6 6 6 6 0 0 0 0 0 0 0 0 3 3 0 0
0 0 0 0 10 0 0 0 3 0 3 6 6 10 10 10 3 3 10 13 26 26 29 26 35 29 23 23 23 19 10 10 6 6 6 3 3 0 0 0 0 0 0 0 0 0 0 0 0
0 0 0 0 0 0 0 0 0 0 3 6 3 10 13 13 3 0 6 13 29 23 26 26 29 26 19 16 13 10 10 10 10 6 3 3 3 0 0 0 0 0 0 0 0 0 0 0 0
0 0 0 0 13 6 3 0 0 0 0 3 3 6 13 13 3 3 16 32 26 23 23 23 19 16 13 10 10 10 10 10 10 6 6 6 3 3 3 3 0 0 0 0 0 0 0 0 0

GEFSSGP_con_cape1000_096.txt.gz
Probability
68 55 45 26 29 13 13 3 0 0 0 10 10 26 32 42 45 45 39 71 90 97 100 100 100 100 100 100 100 100 100 100 100 100 100 100 100 100 100 100 100 100 97 100 100 100 100 100 100
48 29 29 23 29 3 0 3 0 3 3 6 10 23 32 68 81 81 74 90 94 100 100 100 100 100 100 100 100 100 100 100 100 100 100 100 100 100 100 100 100 100 97 97 97 97 97 100 100
13 19 23 16 10 3 0 3 0 0 3 6 16 19 42 77 87 84 81 97 97 100 100 100 100 100 100 100 100 100 100 100 100 100 100 100 100 100 100 100 100 100 97 97 94 94 94 97 100
13 19 19 19 10 0 0 0 0 3 10 13 19 42 55 77 87 84 84 97 100 100 100 100 100 100 100 100 100 100 100 100 100 100 100 100 100 97 94 97 97 97 97 97 94 90 81 87 90
10 23 19 13 3 3 0 0 10 10 23 19 35 58 68 84 81 81 90 94 100 97 97 100 100 100 100 100 100 100 100 100 100 100 100 100 100 97 94 97 94 94 94 94 94 90 90 87 87
10 6 6 3 0 0 0 6 10 13 26 29 55 61 58 77 87 84 90 90 97 97 97 97 97 100 100 100 100 100 100 100 100 100 100 100 100 100 100 100 94 94 94 94 94 90 87 87 87
3 0 0 0 0 0 0 6 3 19 32 23 42 55 55 68 77 77 77 90 90 97 97 97 97 97 97 100 100 100 100 100 100 100 100 100 100 100 100 97 97 97 97 94 94 87 84 84 87
0 0 0 0 0 0 3 0 13 23 32 23 29 29 48 55 61 68 77 77 87 90 97 97 97 97 97 97 100 100 100 100 100 100 100 100 100 100 97 100 100 97 97 97 94 84 90 87 87
0 0 0 0 0 3 3 0 6 32 35 26 16 32 35 45 55 65 71 81 87 87 87 97 97 97 97 97 97 100 100 100 100 100 100 94 90 87 87 97 100 94 90 90 94 94 97 97 97
0 0 0 0 0 3 6 13 10 23 29 29 32 29 32 45 48 68 77 84 87 87 87 84 94 94 94 97 97 97 97 94 94 90 87 81 77 81 87 87 90 84 87 87 94 94 97 94 84
0 0 0 0 3 3 10 16 23 23 32 35 26 23 29 42 52 61 65 74 84 90 90 84 87 90 90 94 94 94 87 81 81 77 71 61 65 61 65 65 71 74 74 71 77 81 71 68 52
0 0 0 0 0 3 16 16 13 19 23 23 19 16 23 45 55 58 61 71 68 81 84 84 87 87 87 87 87 81 74 71 65 61 58 55 42 42 48 48 58 55 48 42 42 45 55 45 35
0 0 0 0 6 10 13 13 16 16 23 32 26 23 23 26 45 45 52 71 74 81 90 84 81 81 74 71 81 71 71 71 68 61 52 45 42 39 32 29 23 26 32 23 23 26 23 26 19
0 0 0 0 6 10 10 6 19 13 26 29 26 26 26 29 45 42 52 71 74 77 77 84 77 68 61 55 52 58 61 55 55 45 48 42 32 29 23 19 23 16 13 10 10 6 6 3 10
0 0 0 0 6 0 3 23 16 16 16 35 42 35 29 29 32 45 52 61 74 77 74 61 65 58 55 48 42 45 45 48 55 45 39 29 16 13 10 3 3 3 6 6 10 10 3 3 3
0 0 0 0 3 0 0 6 13 10 19 26 32 35 35 35 35 48 58 58 68 68 65 58 65 55 48 48 42 39 35 42 32 23 19 16 16 13 13 10 10 6 3 3 3 3 3 3 0
0 0 0 0 0 3 0 6 6 13 16 19 23 26 32 35 45 48 58 61 61 58 52 48 48 48 39 32 32 26 29 26 13 10 13 23 23 16 10 6 6 3 6 3 3 3 3 3 0
0 0 0 0 0 0 3 6 10 13 16 23 23 32 29 39 45 45 58 55 55 52 45 35 35 35 39 32 26 26 19 10 10 13 16 19 19 19 10 6 6 6 6 3 3 3 3 3 3
0 0 0 0 3 3 6 10 10 16 16 23 23 29 35 35 42 48 45 42 39 35 32 35 35 35 32 32 26 19 19 19 16 16 16 13 16 13 6 3 3 6 6 3 3 3 3 3 0
0 0 0 0 3 3 6 6 3 6 13 19 23 13 26 29 42 42 39 35 32 39 32 32 32 32 32 32 29 13 19 16 13 16 16 13 10 6 6 6 6 6 6 3 3 3 0 0 0
0 0 0 0 0 0 0 3 3 6 6 10 13 16 23 23 29 29 39 39 35 39 29 35 29 29 29 29 16 16 13 10 6 6 6 3 3 6 6 3 3 3 3 0 0 0 0 0 0
0 0 0 0 0 0 0 0 0 3 6 3 10 19 23 23 29 26 32 42 35 39 39 29 32 32 23 19 19 13 10 10 0 3 3 3 3 3 3 0 0 3 0 0 0 0 0 0 0
0 0 0 0 0 0 0 0 0 3 6 10 13 19 23 23 23 26 29 39 42 35 32 32 26 23 16 16 16 13 3 0 0 0 0 3 0 0 0 0 0 0 0 0 0 0 0 0 0
0 0 0 0 0 0 0 0 0 0 0 13 19 19 23 26 23 26 29 32 32 39 39 26 26 23 19 16 16 10 3 0 0 0 0 0 0 0 0 0 0 0 0 0 0 0 0 0 0
0 0 0 0 0 0 0 0 0 0 0 6 13 19 26 29 23 23 26 35 29 39 29 29 26 26 16 16 13 6 3 0 0 0 0 0 0 0 0 0 0 0 0 0 0 0 0 0 0
0 0 0 0 0 0 0 0 0 0 0 0 10 13 29 26 23 19 23 26 26 23 23 26 23 26 19 16 10 3 3 3 3 0 0 0 0 0 0 0 0 0 0 0 0 0 0 0 0
0 0 0 0 0 0 0 0 0 0 0 0 6 19 26 26 16 16 19 19 23 26 29 26 26 23 16 13 10 6 3 3 3 0 0 0 0 0 0 0 0 0 0 0 0 0 0 0 0
0 0 0 0 0 0 0 0 0 0 0 0 13 16 19 23 19 19 16 16 13 16 19 23 23 23 16 13 10 10 6 6 6 0 3 6 3 0 0 0 0 0 0 0 0 0 0 0 0
0 0 0 0 0 0 0 0 0 0 0 0 10 16 16 13 13 13 13 10 6 10 13 16 19 13 10 10 6 6 6 10 10 6 6 6 3 0 0 0 0 0 0 0 0 0 0 0 0
0 0 0 0 0 0 0 0 0 0 0 0 6 6 13 10 6 6 6 3 3 3 6 13 16 10 3 6 6 6 10 10 6 6 6 6 3 0 0 0 0 0 0 0 0 0 0 0 0